GFSSW_925_rhum_000.txt.gz
RH
100 100 100 100 96 82 41 34 31 33 30 28 25 23 21 21 20 14 17 14 12 12 11 12 13 15 15 13 8 10 16 16 14 11 10 10 10 10 9 10 14 28 42 40 51
68 74 69 68 81 44 38 31 32 30 28 29 24 21 19 20 21 16 12 10 10 13 12 17 20 18 16 8 12 13 17 13 12 11 11 12 11 9 8 16 19 44 41 40 50
62 54 50 49 43 40 32 30 29 29 30 27 20 19 19 20 25 16 15 14 14 16 16 18 21 17 11 11 11 12 17 14 14 12 12 14 14 12 11 14 18 49 42 50 53
53 49 45 42 38 34 31 27 27 29 29 22 19 18 15 27 22 15 16 16 15 15 16 16 17 18 15 15 14 15 14 14 13 12 13 15 14 15 13 12 15 32 48 52 55
57 51 42 38 34 30 28 29 30 30 27 22 18 16 18 28 19 15 15 15 14 12 13 15 19 19 22 18 16 15 14 14 14 14 14 14 14 15 14 12 16 25 29 36 42
49 44 38 33 32 31 32 32 30 26 23 20 18 17 25 23 15 15 15 14 14 14 13 13 16 17 18 17 19 18 16 17 16 16 16 16 17 15 16 14 16 24 26 26 26
43 40 36 34 33 33 34 34 29 23 20 18 19 22 45 18 15 15 15 14 13 14 14 12 12 17 16 20 16 16 19 19 19 16 16 13 12 15 13 15 18 21 26 26 24
38 34 34 34 34 34 32 30 26 23 20 20 21 26 26 15 16 15 15 15 14 15 15 13 12 15 17 17 23 21 21 25 18 19 13 12 17 12 13 18 20 21 23 25 25
34 33 32 32 31 30 29 26 22 22 22 22 28 36 26 15 15 14 14 15 14 15 15 15 15 18 20 26 28 27 25 22 20 15 14 13 18 17 17 18 19 21 21 23 24
32 30 29 29 27 26 23 21 22 22 26 32 37 32 20 18 14 15 12 12 13 19 21 18 26 27 28 28 31 27 24 23 22 20 26 23 25 23 18 18 18 19 20 20 22
30 28 26 26 24 22 22 28 43 32 30 19 18 20 16 14 15 13 12 13 16 19 25 20 28 26 21 20 22 20 24 28 25 22 30 30 32 28 19 22 25 26 27 27 28
27 26 25 24 25 30 36 44 46 44 36 17 16 15 13 14 18 16 12 17 20 22 18 27 27 18 18 22 21 24 29 33 31 26 30 32 33 24 19 20 23 28 28 26 26
24 24 24 23 23 34 34 46 45 42 49 18 16 16 16 14 17 18 15 18 20 22 21 27 20 16 20 26 26 24 30 32 35 36 33 31 31 22 18 23 24 22 25 24 24
21 23 23 23 25 40 41 39 42 56 56 24 22 18 15 14 20 15 14 18 21 20 19 21 18 17 25 24 26 31 24 31 37 41 46 32 51 27 21 21 22 25 27 25 24
23 24 23 25 41 40 44 33 45 55 73 25 18 14 15 16 16 16 15 17 20 21 21 24 17 21 25 24 25 30 30 38 38 46 42 41 43 30 21 22 24 29 31 29 29
31 30 29 35 35 42 37 32 49 84 69 26 18 19 20 20 18 20 28 26 26 31 29 20 17 21 21 25 28 31 38 44 48 48 63 40 39 39 32 24 32 32 29 31 29
42 36 35 43 48 34 33 54 78 69 30 28 25 21 25 24 24 28 37 42 46 41 51 40 29 24 26 35 35 42 56 79 69 78 71 45 47 36 28 27 29 30 31 29 29
43 45 37 39 40 34 50 74 54 46 31 22 22 21 28 24 24 34 35 45 41 44 57 64 61 40 29 33 37 41 53 82 78 84 76 50 46 38 26 24 25 27 29 30 32
45 50 39 41 36 44 70 80 64 44 29 30 28 30 32 29 24 35 42 44 42 45 54 71 56 41 33 32 34 41 60 44 64 91 86 68 49 30 30 35 33 33 31 40 44
45 58 40 38 36 54 81 51 32 26 30 35 37 36 40 42 40 38 42 43 41 43 42 51 68 49 46 40 36 36 38 64 81 84 94 70 60 51 39 43 41 41 39 46 44
55 61 35 31 51 72 71 48 27 23 28 36 42 47 44 45 47 44 50 44 39 42 48 51 59 61 50 50 51 50 65 56 58 79 95 97 82 45 45 45 45 45 48 44 43
65 54 36 47 61 87 51 30 30 30 36 37 42 44 45 47 51 50 51 45 38 40 55 51 68 81 57 49 42 43 53 63 88 79 86 91 70 39 44 38 47 46 43 42 41
74 68 47 47 72 85 39 38 42 38 41 41 41 40 40 48 52 50 46 41 38 44 47 46 70 83 60 50 56 59 53 58 67 81 85 93 79 36 38 46 44 49 49 51 52
68 79 80 78 70 48 42 43 42 37 39 37 37 40 46 54 49 44 54 48 42 43 51 54 66 67 80 62 68 73 61 56 63 92 80 73 64 49 44 49 52 57 59 56 62
77 66 65 78 71 52 52 46 48 48 36 35 46 49 47 59 57 64 61 60 54 61 48 58 74 69 69 65 65 67 67 67 73 68 85 68 63 53 62 59 59 58 60 61 65
69 76 72 71 55 48 66 44 44 40 43 45 55 57 58 62 58 66 62 62 65 56 61 67 85 78 81 72 77 83 72 70 69 65 66 63 58 67 70 68 69 69 66 71 73
60 58 70 80 66 69 70 42 42 46 44 42 45 51 60 56 55 55 58 60 63 67 75 73 88 96 75 92 94 90 75 65 56 54 58 76 64 73 83 79 75 73 71 75 78

GFSSW_925_rhum_003.txt.gz
RH
100 100 100 100 99 75 46 37 37 36 28 26 24 23 22 21 18 16 15 15 15 12 13 14 15 16 17 14 9 11 17 20 14 11 11 11 11 12 11 24 19 39 46 40 54
96 100 100 100 66 47 39 42 37 32 27 24 23 22 19 21 22 16 16 16 17 17 17 19 21 21 12 9 13 15 19 14 13 11 11 12 11 10 10 22 41 45 46 50 58
83 89 91 58 44 39 38 33 30 26 24 23 23 20 17 25 18 14 16 16 15 14 16 19 22 20 12 13 13 14 19 14 14 13 12 15 14 13 14 18 40 46 48 63 63
62 52 44 41 38 36 32 34 28 26 27 26 21 18 19 26 13 14 16 16 14 12 12 14 18 18 21 21 18 16 14 15 14 14 15 15 14 14 13 13 17 43 46 63 67
55 50 42 38 35 32 30 28 29 30 28 23 20 18 19 22 19 15 15 15 13 14 13 16 19 18 21 19 17 16 15 15 14 14 14 14 15 14 15 13 16 42 48 62 64
51 45 38 35 33 32 31 32 31 28 24 20 19 19 26 22 15 15 15 14 14 15 14 14 15 16 18 18 18 18 17 18 16 16 16 16 17 16 15 14 18 36 52 58 55
44 41 36 35 34 32 31 31 30 24 22 21 19 20 32 17 15 16 15 15 15 15 16 13 14 16 17 18 17 17 19 21 18 18 18 17 14 16 14 15 19 31 38 37 37
36 35 34 35 35 35 34 32 28 25 22 19 20 24 25 15 16 15 15 15 12 14 16 15 15 16 17 17 25 21 23 25 18 20 16 12 20 14 13 16 18 22 29 30 28
35 35 35 35 35 34 31 27 24 22 20 19 24 32 24 15 15 15 13 13 12 13 13 16 16 22 23 22 26 30 26 22 20 20 19 15 19 15 19 19 19 22 25 27 26
33 33 33 31 29 27 26 23 21 19 22 26 32 27 20 20 15 13 12 12 13 18 21 22 28 25 29 29 30 27 25 25 24 22 32 29 26 26 25 21 22 21 21 19 21
32 30 29 27 28 29 29 37 43 30 31 21 19 21 17 14 16 14 13 14 18 21 24 24 28 25 21 22 22 21 26 32 27 24 33 33 39 33 29 24 25 26 28 32 32
28 27 26 26 31 28 31 50 46 43 32 23 17 16 15 15 18 17 13 18 20 23 19 29 26 19 21 23 21 24 29 31 33 29 36 36 36 24 23 22 26 32 33 32 32
25 24 23 22 27 29 37 51 51 51 35 22 17 16 16 15 18 19 15 19 21 21 23 29 20 18 22 27 27 26 29 30 35 37 33 37 33 22 22 25 25 25 28 28 33
23 24 23 22 34 39 39 41 46 56 47 29 22 19 15 15 20 16 15 19 22 20 20 23 17 22 26 25 27 32 23 31 39 42 47 38 43 32 22 23 24 30 30 28 28
22 23 24 24 39 40 44 35 46 52 63 26 18 15 16 16 15 22 22 18 24 26 24 24 18 26 28 27 28 35 37 40 40 46 45 42 45 37 30 22 26 31 30 29 28
30 26 27 33 34 42 36 34 52 79 63 27 20 21 21 22 24 26 33 30 30 34 34 34 21 23 25 27 32 35 42 48 51 52 62 43 44 42 37 33 32 31 30 31 30
38 33 33 39 41 35 34 50 72 67 32 28 25 22 25 25 30 34 41 46 51 35 55 47 40 35 30 37 38 45 59 73 64 76 71 50 48 42 31 31 30 32 32 32 31
42 35 35 41 41 36 46 66 50 45 34 27 26 24 28 27 32 42 41 52 46 48 64 67 56 44 36 35 39 43 54 80 68 85 79 54 50 42 29 28 28 28 33 33 41
44 43 34 44 39 48 60 76 59 48 30 31 30 34 40 37 31 38 48 50 48 47 53 77 57 44 38 41 37 45 63 49 76 94 89 72 53 36 37 42 33 36 40 50 53
47 49 45 38 42 46 78 53 32 28 30 36 38 40 41 48 44 44 47 43 44 52 44 56 72 51 48 40 42 43 42 67 84 84 90 77 72 57 43 51 44 46 53 46 45
56 48 42 47 50 65 69 52 27 28 31 40 42 47 48 46 48 50 50 44 40 42 48 49 60 56 47 51 54 58 69 62 63 81 91 96 83 53 53 48 51 54 46 44 44
56 52 47 43 62 82 50 32 37 42 42 41 44 44 47 48 55 51 51 44 39 42 50 53 69 80 53 51 50 48 63 64 86 77 87 94 74 43 43 46 53 52 54 55 52
73 68 41 38 73 80 43 44 43 39 44 41 42 43 50 53 55 50 49 47 43 46 48 49 71 80 55 48 48 59 60 62 73 83 86 92 78 46 44 53 52 58 60 61 57
63 73 75 77 68 48 46 44 44 38 40 42 44 46 48 57 56 51 59 55 58 48 63 54 67 64 79 55 66 75 68 64 70 93 82 80 63 52 54 63 65 67 66 64 63
74 64 67 76 71 55 52 46 48 47 38 47 54 56 50 64 60 70 63 61 54 59 55 61 73 69 70 67 70 72 76 72 81 77 86 74 72 60 60 74 72 67 67 67 64
71 76 73 78 60 44 67 44 51 45 44 48 60 55 54 63 58 65 62 62 64 57 63 73 83 79 84 77 81 86 78 81 79 79 79 74 70 50 67 73 77 77 74 75 74
66 63 66 82 63 68 71 45 45 48 50 46 54 56 55 58 56 55 61 60 58 65 72 74 90 98 82 93 94 82 75 75 66 55 57 74 63 66 77 79 84 78 78 79 76

GFSSW_925_rhum_006.txt.gz
RH
100 100 100 100 93 87 77 61 39 28 27 26 22 24 25 22 21 15 15 15 17 18 19 18 17 19 16 14 10 12 19 18 12 11 10 12 11 12 13 27 24 44 57 44 56
96 100 96 99 89 82 83 48 32 28 26 22 22 24 24 23 18 16 17 18 17 16 19 21 20 19 12 12 14 16 19 14 13 12 12 13 11 11 17 31 40 43 49 62 64
81 79 91 83 74 81 53 35 28 27 23 22 23 23 24 24 16 14 16 16 14 12 16 18 19 14 18 17 16 16 18 15 14 12 12 15 15 13 20 24 41 37 50 71 71
60 58 60 57 61 44 37 28 27 25 24 23 23 24 22 23 22 15 16 15 14 12 12 14 19 20 22 19 19 16 16 16 14 15 16 16 15 15 16 14 23 42 57 72 78
59 55 53 49 40 34 28 27 27 27 25 24 21 23 23 22 19 16 15 14 15 14 14 16 19 19 21 19 18 17 16 16 15 16 15 15 16 14 17 16 15 40 60 74 77
56 52 42 37 33 30 31 30 30 27 24 22 22 26 25 23 16 16 15 15 15 15 16 15 17 17 20 19 18 18 19 18 18 17 17 16 17 16 15 15 17 50 55 70 73
46 39 36 35 35 34 32 29 27 25 24 21 22 24 22 19 16 16 14 15 13 14 18 16 15 16 18 19 22 20 20 21 20 21 18 18 17 16 16 14 18 30 55 59 65
40 38 36 36 36 34 32 29 28 25 22 21 24 29 21 16 16 14 12 11 11 14 14 17 17 19 20 20 23 23 24 25 18 20 16 14 23 16 13 15 18 21 41 51 50
37 38 37 35 34 33 31 28 25 21 22 22 26 24 21 16 15 13 13 13 12 13 17 16 18 24 24 22 26 31 24 23 23 26 30 18 23 18 17 25 24 21 27 33 29
34 35 34 32 30 30 29 27 23 21 24 22 24 23 18 19 16 14 13 14 15 18 20 22 26 24 30 28 25 27 24 28 26 26 34 34 31 32 31 28 26 24 27 26 24
33 33 30 32 36 38 33 34 33 28 25 20 20 20 17 14 16 15 14 16 18 22 24 28 29 27 23 24 23 23 26 32 30 27 35 37 42 32 28 29 28 26 31 37 34
30 29 28 36 31 34 38 54 44 43 25 22 19 17 16 16 20 19 14 20 22 24 20 29 26 21 26 26 23 24 29 30 33 32 36 39 37 23 28 29 33 37 38 34 33
27 26 25 31 34 41 43 58 55 50 29 22 20 18 17 16 20 22 18 21 22 22 28 30 22 24 24 30 33 31 27 29 35 39 36 39 31 32 23 28 30 32 29 30 32
25 25 24 27 30 38 42 46 49 48 46 30 22 18 16 16 19 20 23 20 24 22 23 26 21 25 32 29 30 37 26 32 39 46 47 39 42 37 35 25 32 30 29 26 28
24 25 25 28 36 43 45 38 48 41 52 25 22 15 19 19 19 30 27 22 33 32 28 24 23 31 36 30 30 38 40 43 41 50 47 48 46 36 35 27 28 30 30 30 32
28 24 28 35 37 44 37 37 48 71 53 29 22 24 22 27 29 32 37 34 31 38 41 38 27 28 29 29 35 38 46 44 54 55 63 49 49 44 40 34 32 31 30 33 30
35 28 28 35 41 36 38 48 65 68 35 30 27 24 27 31 36 39 45 52 53 32 59 49 42 41 34 41 40 49 55 64 62 74 70 51 52 42 34 32 31 32 31 34 42
36 35 40 42 41 37 43 63 47 45 36 29 27 32 33 31 38 46 45 55 48 50 70 68 51 45 40 38 42 47 56 77 59 87 82 59 54 44 32 38 34 35 44 54 58
40 35 39 46 42 49 60 74 58 48 32 31 33 38 40 40 39 45 51 53 50 51 55 80 56 47 42 45 40 46 66 54 79 96 90 73 56 42 44 48 44 52 54 52 51
47 37 48 46 51 39 78 56 34 38 32 36 40 41 42 51 45 47 48 44 45 53 46 56 68 49 48 41 43 48 47 65 84 88 88 74 70 62 57 54 57 55 51 53 52
53 47 46 53 46 61 70 53 32 39 37 41 44 48 50 49 49 52 51 44 42 46 49 50 60 49 46 53 56 60 68 65 68 83 93 97 80 56 55 53 59 54 59 61 60
48 49 49 46 57 78 52 35 38 43 44 44 46 46 49 53 56 53 52 47 46 47 53 57 70 76 50 45 53 54 57 64 83 71 90 93 85 46 49 57 55 57 62 62 60
70 64 41 37 70 80 46 46 44 40 47 41 44 48 52 56 56 52 53 53 57 49 52 50 71 76 47 50 52 60 61 65 77 84 85 95 74 51 51 57 54 62 66 68 67
64 74 75 80 69 51 48 45 47 42 46 56 50 48 53 60 63 59 59 53 59 56 69 58 69 60 71 53 59 73 70 68 73 91 82 82 65 54 52 59 70 73 73 72 71
74 71 68 74 75 59 54 44 50 46 41 51 53 54 52 64 61 70 62 61 54 65 64 64 75 72 71 68 71 74 79 78 88 80 88 68 77 64 62 62 74 73 74 75 70
72 73 80 82 62 49 67 46 54 49 45 51 58 56 56 59 54 62 63 63 62 57 65 75 80 83 87 84 86 93 83 85 84 84 87 82 86 61 56 71 79 77 76 80 82
71 65 70 88 65 68 68 48 46 51 51 48 58 56 55 58 58 54 61 59 60 60 68 75 92 98 86 89 92 73 59 76 69 68 67 69 54 54 71 77 73 71 86 86 88

GFSSW_925_rhum_009.txt.gz
RH
99 99 100 100 100 97 84 47 30 28 26 26 26 24 21 23 19 19 18 18 19 19 19 19 18 19 15 12 10 12 13 12 11 10 11 12 11 12 17 29 24 35 50 46 65
100 100 100 100 100 91 62 36 29 27 26 26 24 23 22 24 26 18 17 17 16 15 17 19 20 17 14 13 14 12 14 14 12 11 12 13 11 11 16 28 37 41 49 70 78
76 98 98 100 99 67 47 31 28 26 26 25 24 24 24 26 24 16 17 15 14 14 16 17 16 16 19 17 16 16 15 15 14 11 12 15 14 13 18 22 25 23 47 67 75
62 64 84 85 57 47 34 29 27 25 25 24 24 24 23 23 27 16 16 15 15 13 15 16 19 20 22 18 18 17 16 15 15 16 15 14 15 15 16 12 17 27 47 63 64
59 58 57 47 42 35 30 28 26 26 24 23 24 26 23 23 19 17 16 14 14 15 14 17 19 21 21 19 19 17 16 16 15 15 14 16 15 15 15 14 14 34 56 59 59
56 52 44 39 35 30 28 27 28 26 22 24 24 28 22 26 16 15 15 12 13 15 16 16 18 18 22 20 20 20 19 19 18 17 18 17 17 16 14 15 18 36 45 54 60
48 42 36 33 31 31 32 31 26 22 23 26 27 28 22 20 16 14 11 12 12 15 18 16 16 17 20 21 24 22 18 18 20 20 17 18 16 15 14 13 15 25 39 52 59
41 38 37 36 35 34 32 27 23 23 24 23 27 24 22 17 15 13 11 12 14 15 17 18 15 23 21 21 20 20 21 21 19 22 19 16 20 15 15 17 17 18 24 45 51
38 38 37 37 36 32 30 28 25 24 26 24 28 24 21 15 15 15 13 14 14 17 17 16 18 25 21 22 21 25 18 23 22 26 27 24 24 19 22 24 23 21 19 33 41
36 37 37 36 33 30 28 26 24 26 24 21 24 22 18 18 16 16 13 16 18 17 20 22 23 23 25 18 19 26 23 26 26 23 29 30 29 26 22 25 26 22 22 28 29
35 35 34 36 36 32 34 36 27 29 22 21 20 21 17 16 16 17 16 16 18 23 25 28 24 26 26 26 24 24 26 30 27 29 32 36 32 21 24 25 25 25 26 26 27
33 32 38 38 40 39 40 52 38 37 24 22 19 18 16 17 21 20 16 20 24 24 24 26 28 23 27 26 24 26 28 26 29 30 34 34 26 24 26 30 32 31 30 29 28
28 28 32 38 36 40 41 53 54 46 30 22 21 19 18 17 25 26 21 24 23 29 30 31 23 25 24 32 34 33 28 31 34 34 34 33 27 28 23 26 27 28 29 28 27
26 26 27 36 32 37 44 44 52 41 44 31 23 18 19 17 22 26 28 22 29 25 28 25 25 31 34 33 34 37 32 39 40 41 37 37 31 30 30 26 28 26 27 27 27
25 26 30 32 32 45 40 38 56 34 48 24 25 16 22 23 23 27 29 30 34 36 29 25 29 34 37 32 34 39 42 44 42 45 43 41 34 31 31 28 26 27 28 29 31
26 28 35 35 37 43 36 46 46 64 46 30 24 25 27 32 35 34 38 34 32 39 40 38 33 32 34 31 36 40 43 41 47 47 50 47 42 38 34 33 31 29 29 35 36
32 28 29 34 40 38 42 46 57 62 36 31 27 28 32 37 39 41 46 51 48 32 58 43 40 40 37 38 39 43 42 46 54 60 54 48 46 38 36 34 32 33 36 46 49
40 35 39 42 41 40 40 58 51 46 38 31 29 36 37 37 42 47 46 51 51 50 61 55 44 44 43 42 44 50 50 62 54 63 60 53 49 45 42 38 36 44 46 44 45
40 36 40 47 44 46 58 73 57 48 32 33 36 38 42 42 41 46 54 52 52 54 54 64 49 45 46 46 42 47 59 52 71 90 79 56 48 42 40 40 44 44 44 46 44
36 41 51 52 55 36 76 54 36 40 34 34 41 40 46 52 47 50 50 46 47 55 49 59 58 48 45 42 44 44 46 54 66 74 68 51 58 42 48 45 49 48 52 51 47
44 57 50 56 38 58 67 52 39 42 40 40 46 52 51 51 50 54 52 48 45 48 50 51 55 45 46 53 55 52 55 60 59 71 80 91 56 49 48 47 47 50 54 54 51
43 60 50 56 54 73 54 38 39 43 45 45 48 50 52 55 59 57 58 51 52 48 56 57 64 58 47 49 52 52 54 54 61 60 76 83 65 42 46 46 48 50 55 54 53
65 63 44 40 70 81 50 48 46 42 52 44 50 52 54 59 61 58 57 56 60 52 55 53 66 58 37 45 46 57 58 64 69 76 76 88 57 43 50 49 47 53 54 54 56
62 76 73 75 68 57 53 48 51 44 51 57 52 50 57 61 66 64 62 55 57 60 74 59 66 55 50 40 51 66 67 64 68 83 67 69 54 46 43 46 48 54 59 55 58
75 75 67 74 72 59 53 46 51 47 46 52 54 51 55 65 64 70 63 58 55 62 67 63 75 71 65 62 66 65 66 68 73 69 80 61 59 51 48 53 52 58 57 59 58
71 74 80 80 59 52 66 51 55 53 47 52 60 58 54 58 53 63 62 62 59 59 66 72 72 83 86 79 78 87 70 73 72 72 75 70 72 51 51 57 65 58 59 62 75
76 62 69 88 65 64 63 53 51 54 54 52 59 58 56 57 56 54 61 68 58 60 69 75 87 93 76 86 84 74 55 68 65 63 58 63 46 54 58 66 58 57 66 84 75

GFSSW_925_rhum_015.txt.gz
RH
72 84 95 99 100 100 98 71 42 34 31 30 25 24 24 24 20 23 17 16 17 17 18 17 15 12 10 6 6 5 6 8 7 7 7 6 6 6 8 12 12 12 16 22 33
70 74 99 100 100 98 79 53 36 35 30 26 24 24 24 25 36 13 15 16 14 15 19 14 10 9 6 6 6 6 6 6 5 6 6 6 5 6 9 10 12 16 16 27 34
66 67 70 97 82 76 62 52 38 33 28 25 24 25 26 26 31 11 15 16 14 15 18 12 8 7 7 6 6 5 7 6 6 5 4 5 5 5 7 9 10 13 16 25 31
53 54 58 67 82 80 69 41 36 30 27 25 25 26 25 48 17 12 14 15 15 22 12 9 8 7 7 7 6 7 6 5 5 5 6 6 6 7 6 7 7 8 15 22 27
51 55 57 55 62 56 48 37 30 28 26 26 27 28 33 23 12 13 14 13 18 12 9 8 8 6 6 6 5 6 7 5 6 6 6 7 8 9 7 6 8 10 15 20 23
53 55 55 50 45 42 37 31 28 26 26 26 31 29 40 17 13 12 12 11 11 9 7 7 7 7 6 6 8 8 9 10 9 10 9 10 10 10 9 7 7 11 14 16 18
53 53 50 43 37 34 30 28 26 26 25 27 30 41 25 14 13 11 11 11 11 12 9 10 8 7 8 11 10 10 12 12 12 11 11 10 11 10 9 9 8 8 11 14 15
49 46 42 36 32 30 29 29 28 26 27 30 31 46 17 14 13 11 10 10 11 13 12 11 10 10 10 11 10 11 11 14 12 12 12 12 14 10 10 10 9 10 9 12 14
43 39 35 32 30 32 31 29 26 27 27 28 36 38 14 13 12 11 11 9 11 14 13 12 11 10 13 12 12 11 13 12 15 12 12 12 12 11 11 11 11 10 11 11 13
40 38 36 34 33 32 30 28 28 28 25 39 26 18 11 11 11 12 12 13 12 13 12 12 11 12 9 10 13 11 9 9 10 13 10 11 11 11 12 12 13 11 10 11 12
40 38 38 36 34 31 29 40 26 28 18 16 12 13 10 10 12 11 13 12 12 12 14 12 12 14 15 13 12 10 11 11 11 14 15 13 13 13 14 13 15 14 13 13 14
37 37 37 35 33 32 42 25 29 20 18 13 13 13 14 13 12 12 12 13 13 13 12 11 16 15 14 14 14 14 14 14 14 15 16 14 14 14 15 17 15 15 16 18 20
35 41 41 44 37 40 35 36 38 31 16 16 14 13 14 12 16 16 12 11 11 11 10 15 16 15 17 16 17 17 18 22 21 17 16 16 16 16 16 16 16 15 15 16 18
30 30 40 38 45 38 32 42 46 43 18 16 14 14 13 13 18 16 17 14 12 12 12 16 18 18 17 20 21 21 21 23 22 21 19 16 20 18 16 18 18 18 19 19 19
26 29 34 36 33 25 39 49 53 44 32 17 16 15 12 16 17 17 17 14 14 16 18 20 20 21 22 24 22 24 26 25 24 23 20 17 16 23 16 19 20 20 21 22 23
31 37 35 36 44 45 47 52 48 40 35 21 16 18 19 18 18 17 17 15 16 15 16 20 18 21 24 22 23 24 26 25 26 24 31 23 21 23 21 22 21 21 24 25 24
30 41 45 43 32 55 54 40 25 41 21 22 20 18 20 22 23 20 22 25 22 26 26 22 24 23 24 24 24 22 24 35 40 38 37 24 21 31 25 23 22 24 26 29 29
31 39 44 59 54 49 45 29 42 25 19 17 18 19 23 22 25 24 22 26 24 22 21 24 37 26 25 29 30 26 29 44 44 40 30 24 22 28 24 24 25 25 26 27 29
37 54 49 63 52 55 30 44 32 21 18 20 19 22 25 24 23 26 29 29 30 29 29 28 31 26 28 26 26 29 34 29 45 57 53 22 22 26 25 27 26 26 27 28 26
33 31 37 42 42 48 40 40 28 22 19 17 23 24 25 25 25 26 28 30 30 28 26 30 36 26 27 26 28 29 27 39 34 60 39 19 17 26 32 28 28 26 27 27 27
32 28 58 50 46 32 43 32 26 25 23 24 24 26 25 29 25 29 31 32 29 29 24 24 28 30 26 30 29 30 32 33 27 37 46 38 26 22 23 25 28 27 26 28 29
35 34 55 56 32 34 35 27 34 27 27 28 26 26 28 30 33 33 34 34 32 31 32 33 32 35 23 29 31 30 31 29 42 37 38 50 43 22 24 24 25 26 26 30 31
28 36 50 52 55 56 35 33 28 29 28 28 33 30 29 33 42 35 37 41 37 34 38 33 36 33 27 35 31 31 29 28 35 47 47 65 42 21 23 25 23 24 26 30 34
30 55 37 35 31 29 33 32 36 31 33 30 33 30 33 36 33 41 42 42 42 39 58 46 32 33 35 25 22 28 24 23 30 51 48 41 32 25 23 26 26 27 29 35 38
32 42 40 49 40 31 29 30 32 35 30 28 33 30 34 42 38 41 37 43 40 62 42 37 42 36 32 25 24 26 28 27 27 28 42 38 34 29 29 32 32 33 35 37 39
32 39 36 41 33 33 43 31 29 32 30 32 32 30 29 42 29 38 31 28 28 38 36 37 51 54 49 31 27 33 28 26 25 28 31 31 34 28 29 30 35 40 41 44 49
46 45 34 57 38 39 37 31 29 34 39 26 29 29 41 32 33 34 36 35 33 36 43 48 57 55 66 53 56 76 44 27 28 28 34 47 35 29 35 43 50 49 50 53 65

GFSSW_925_rhum_021.txt.gz
RH
54 59 59 66 72 72 62 76 50 33 38 31 31 28 28 27 24 33 39 19 20 17 16 15 17 18 17 17 14 10 14 15 12 13 12 8 8 8 12 15 26 26 35 37 28
56 59 56 66 71 69 63 54 34 33 33 32 30 30 29 29 33 43 17 21 14 14 16 17 18 17 18 14 14 11 14 9 8 9 8 7 8 8 13 16 38 40 35 31 28
86 71 70 60 68 75 61 54 38 32 33 32 31 31 30 35 64 27 19 15 14 13 13 15 15 15 15 13 9 7 10 6 7 7 7 7 8 8 14 16 31 44 40 35 31
72 65 60 58 56 63 58 47 40 32 35 33 30 33 35 44 38 13 12 13 14 12 15 20 18 12 12 12 7 8 6 6 6 7 6 6 6 6 10 13 18 37 36 36 38
48 50 49 52 54 55 49 38 37 33 33 30 34 37 50 61 36 11 11 12 13 14 21 24 19 12 14 10 6 7 7 6 6 8 8 8 8 8 11 11 17 33 34 36 36
50 51 51 52 53 51 42 39 38 32 28 31 40 40 58 37 13 11 10 11 12 18 18 18 11 8 7 11 8 8 7 7 6 8 8 8 10 10 10 9 18 28 35 34 33
49 51 51 51 51 46 38 36 33 27 27 34 41 48 55 40 15 10 10 9 9 10 12 9 9 12 10 11 9 10 11 11 11 10 10 10 13 12 10 9 14 21 28 30 30
50 50 50 49 46 40 35 29 27 27 29 35 42 57 45 15 12 10 9 9 8 10 11 10 10 13 14 9 9 11 14 19 14 12 12 13 19 13 11 11 14 14 16 25 29
48 46 45 42 38 34 30 28 26 28 29 40 45 56 38 13 10 10 9 9 9 10 11 10 11 13 10 14 17 15 21 20 16 14 15 14 18 14 12 12 13 14 15 18 24
44 41 37 34 31 29 29 29 28 29 34 47 47 44 32 14 10 9 9 9 12 12 12 12 16 18 19 21 26 20 17 21 20 14 11 12 14 14 13 14 14 14 15 22 35
42 39 36 32 32 33 34 36 51 48 51 36 28 30 12 9 9 9 9 10 13 14 21 18 23 26 17 14 12 13 15 22 19 15 13 15 13 18 18 16 15 26 37 38 42
43 41 38 36 36 34 46 64 31 28 34 26 20 17 10 10 12 11 10 15 16 23 20 20 25 16 12 12 14 14 19 27 19 16 15 16 18 20 20 19 23 34 36 40 42
40 39 38 36 35 36 37 44 35 31 29 16 13 13 13 13 15 13 13 17 18 20 21 25 17 12 14 24 23 27 30 28 24 21 18 19 22 23 20 23 25 29 32 34 41
37 44 38 36 37 30 43 32 39 40 34 19 16 13 13 14 18 13 12 16 14 20 24 22 15 17 18 25 24 33 28 27 26 28 35 20 34 27 25 28 28 30 36 36 39
33 42 44 37 42 52 37 38 36 46 61 18 17 12 12 17 19 15 11 17 19 16 22 21 22 28 30 25 22 29 24 27 27 32 33 31 33 30 26 33 33 37 37 40 42
38 36 38 43 47 47 38 42 40 81 48 22 17 19 16 17 17 15 14 14 16 18 23 22 21 24 25 22 21 21 29 33 33 37 62 48 39 45 32 32 34 36 36 38 41
41 34 41 54 62 46 38 53 68 80 24 21 22 19 22 20 21 20 20 24 33 30 30 23 27 24 21 30 25 27 41 73 69 85 73 47 42 56 36 29 32 39 45 46 44
38 37 52 55 51 43 49 62 60 28 21 16 20 21 26 21 23 22 26 33 31 37 39 42 45 30 25 28 30 34 35 75 63 81 68 40 46 45 35 34 34 37 40 39 38
34 42 55 44 30 38 70 81 59 29 18 20 20 27 26 22 24 28 35 33 31 31 42 46 39 26 26 24 27 34 43 25 61 62 80 48 40 34 34 34 32 34 37 42 41
45 48 47 41 26 50 78 78 36 21 18 18 26 25 32 27 28 31 33 32 29 28 27 29 42 26 24 23 26 30 24 56 66 63 56 44 49 60 42 42 39 33 33 35 40
50 55 56 44 29 67 78 65 26 20 30 31 28 21 28 28 27 31 36 33 33 27 29 36 43 35 23 32 34 38 40 38 39 64 75 78 50 26 42 48 44 38 41 46 50
64 59 57 49 57 66 61 37 32 26 26 26 28 23 28 26 36 39 48 42 36 40 37 31 46 56 37 26 24 25 34 40 74 55 79 82 61 31 48 40 41 40 46 47 48
68 74 58 62 70 83 46 30 25 28 28 25 32 33 29 37 43 52 53 45 46 48 54 42 45 70 53 44 34 26 29 30 60 71 59 74 59 30 34 45 42 44 48 45 48
77 75 73 71 62 54 42 35 35 31 32 28 31 27 33 38 36 53 55 46 45 41 51 49 37 50 68 37 29 28 28 24 49 85 72 73 53 39 51 52 49 53 51 50 50
73 66 57 68 55 53 44 41 42 39 30 28 30 33 37 41 42 56 55 52 47 46 42 46 54 49 45 36 30 29 32 34 34 38 51 49 44 56 59 60 58 54 52 54 57
72 70 51 54 38 43 53 37 42 36 36 35 34 33 40 44 48 55 51 48 48 40 43 51 76 54 48 48 47 44 44 44 38 33 39 40 48 52 54 53 54 56 58 62 61
46 42 69 75 49 61 50 33 33 41 35 36 35 56 62 52 53 52 50 45 46 45 53 66 75 82 82 71 77 76 53 38 36 34 36 46 47 56 60 58 64 71 65 64 64

GFSSW_925_rhum_024.txt.gz
RH
51 48 47 50 49 51 60 60 64 56 45 42 41 36 31 27 25 35 38 11 17 15 17 18 20 20 21 21 15 12 18 19 15 15 14 10 14 13 21 33 32 32 37 31 38
61 58 58 67 53 52 54 72 75 64 45 45 43 34 29 27 37 49 12 15 21 19 18 18 18 19 21 18 17 15 18 12 10 11 10 8 9 11 30 45 49 48 38 34 36
91 72 77 62 54 52 61 77 76 71 62 56 42 29 27 33 66 31 13 14 20 16 17 17 16 18 20 15 14 12 11 7 8 8 8 9 9 10 36 44 45 45 41 35 34
68 57 68 50 49 52 58 68 62 62 55 49 32 27 30 47 38 15 13 13 18 17 18 20 23 25 20 16 12 7 7 6 8 7 7 9 8 9 14 32 40 35 35 37 39
51 48 47 46 48 51 52 52 44 59 40 39 32 30 49 62 40 12 12 14 15 18 23 24 25 17 14 12 8 8 7 7 9 9 8 8 9 10 14 37 38 36 35 37 37
49 49 49 49 50 51 50 46 41 43 38 36 36 41 60 47 15 14 13 14 16 18 21 24 20 14 14 12 8 7 8 7 7 9 9 11 12 10 11 39 41 37 39 39 38
51 48 50 50 51 51 48 39 34 36 38 34 42 54 73 44 16 13 13 10 11 15 15 13 12 12 13 12 10 10 9 10 9 9 10 12 13 14 11 39 42 41 40 39 37
48 48 50 50 50 48 41 34 33 33 34 37 47 69 51 12 13 13 10 9 9 10 11 11 10 12 12 10 12 13 16 17 13 12 11 12 18 14 12 27 42 42 40 39 39
45 47 47 48 48 42 36 32 30 33 35 44 57 71 31 17 13 10 9 9 11 10 11 9 12 16 14 17 20 20 20 21 16 15 13 14 17 16 13 16 24 32 33 37 42
44 44 43 43 40 35 30 30 33 35 45 60 56 48 32 24 10 10 9 9 12 14 16 14 22 22 22 23 24 21 22 22 20 17 16 17 15 16 14 14 16 25 46 52 56
43 42 38 35 32 30 33 40 50 50 56 27 28 34 22 16 10 9 9 10 13 15 20 22 24 23 17 18 16 16 23 24 19 15 14 18 19 20 19 26 43 50 53 52 52
44 40 37 35 33 34 38 59 34 36 23 30 34 30 23 10 11 11 10 15 16 22 20 25 24 18 16 20 25 22 26 25 21 19 16 23 22 22 29 41 47 50 52 52 53
43 42 40 36 35 34 40 41 34 39 43 18 23 20 13 14 15 14 14 18 19 19 22 28 18 14 23 27 27 35 32 29 25 23 22 24 27 35 37 40 41 45 48 50 53
43 41 40 38 36 40 34 24 40 46 38 20 16 13 13 16 18 13 13 16 18 23 25 21 17 23 28 27 26 38 28 27 26 31 29 22 40 30 38 41 40 44 52 55 52
37 47 40 39 44 58 47 43 42 45 49 18 17 11 12 17 18 16 12 18 18 17 24 24 29 31 31 25 23 30 25 27 27 33 37 38 41 33 38 46 47 49 51 54 57
36 46 46 44 54 51 44 37 44 75 43 25 20 19 16 17 19 16 15 16 18 23 24 24 24 25 25 25 22 22 29 44 40 45 62 47 44 44 43 43 44 44 48 51 55
44 39 46 56 62 49 31 46 64 74 24 24 24 21 21 22 21 19 26 35 40 33 32 31 31 26 24 32 29 31 49 70 68 78 69 51 57 53 45 38 40 50 52 50 50
41 41 56 60 50 42 45 50 62 40 27 20 23 27 26 24 24 27 30 40 33 39 39 45 48 32 28 28 30 34 44 73 65 71 63 42 55 52 44 43 44 44 46 43 46
42 51 57 42 33 33 64 78 63 35 22 23 25 31 28 24 26 33 35 36 31 32 42 47 40 28 25 25 29 34 41 36 62 68 77 57 45 36 39 42 42 41 39 44 50
46 54 47 43 30 44 78 79 48 27 28 22 29 30 33 28 29 36 37 34 30 31 32 33 43 28 25 28 29 26 28 52 67 58 54 51 52 62 51 47 43 42 50 55 52
56 50 51 46 34 67 76 73 34 28 32 29 29 28 31 32 31 39 41 39 38 32 30 37 43 39 34 33 35 38 42 44 47 68 72 79 55 38 48 52 50 54 56 56 58
68 58 65 53 42 78 64 47 28 28 28 28 30 34 30 31 46 54 51 44 48 44 34 36 51 58 39 27 25 28 36 47 71 46 81 81 58 42 48 48 47 53 54 54 53
72 80 68 63 56 78 53 33 28 28 28 27 33 35 35 40 60 56 54 51 48 48 48 38 47 70 57 49 40 32 30 51 61 71 58 71 59 41 47 54 52 57 55 58 62
82 78 74 81 69 50 50 35 37 34 32 33 32 33 39 42 53 58 56 50 42 39 55 49 49 51 66 49 38 28 28 44 55 80 68 70 50 46 57 63 63 61 61 67 66
82 69 54 60 54 56 47 41 40 39 32 31 32 34 39 46 52 64 57 52 45 45 39 49 56 49 42 42 35 32 34 35 38 47 58 49 56 63 68 68 62 61 66 65 63
75 71 66 54 43 47 59 49 45 39 36 35 35 41 43 51 50 63 57 54 50 40 45 62 71 48 41 58 59 40 42 48 46 37 40 57 67 61 62 58 64 67 67 65 62
53 60 60 78 51 55 58 44 48 44 37 44 52 62 64 55 59 60 55 54 51 49 66 68 74 71 61 77 67 69 51 42 36 41 40 51 58 65 64 69 76 73 68 66 61

GFSSW_925_rhum_027.txt.gz
RH
55 73 55 54 55 53 56 62 74 57 76 56 50 36 33 28 26 39 52 12 11 12 16 19 16 21 22 23 17 14 21 20 15 33 34 25 17 18 32 44 39 39 40 50 62
58 72 85 80 62 55 66 64 81 80 72 54 56 38 31 32 41 56 8 12 14 19 17 18 20 23 26 22 19 19 24 18 14 14 20 15 30 34 42 47 52 48 42 49 60
61 91 87 80 66 63 67 68 81 68 77 52 39 40 31 38 70 28 12 12 14 23 19 18 18 19 22 18 16 15 14 8 9 10 10 12 22 24 48 50 47 44 47 48 56
64 67 59 51 58 57 60 59 69 73 64 43 43 36 37 57 30 17 15 17 16 21 19 19 21 23 25 20 16 8 7 8 8 9 9 11 11 30 22 43 42 37 40 45 48
53 52 46 46 47 49 57 63 68 65 65 40 42 40 59 62 38 16 17 14 19 21 20 24 26 22 17 15 10 8 7 9 10 9 8 9 11 12 14 45 40 36 37 40 40
50 47 48 48 51 52 56 59 57 49 46 43 45 50 64 32 14 18 16 15 16 20 25 24 23 22 17 14 8 8 8 8 9 10 9 12 11 12 28 48 42 37 37 37 37
50 48 50 50 53 54 54 54 43 42 42 43 52 64 70 30 15 15 15 14 15 17 23 22 20 19 14 12 9 10 10 10 9 10 10 13 13 15 29 46 43 39 38 39 36
49 49 50 51 53 52 50 46 42 38 42 49 56 76 47 14 14 15 14 11 11 13 17 12 13 13 11 12 16 14 17 17 12 12 13 12 16 14 44 48 48 46 44 44 46
49 49 50 51 51 49 44 45 38 38 50 58 66 76 27 13 17 12 10 10 11 12 12 10 14 18 17 18 20 23 20 18 17 13 14 12 14 15 35 48 51 50 47 54 64
48 47 47 48 46 43 38 46 47 47 55 69 66 50 26 18 13 10 10 10 13 14 16 18 24 22 23 21 21 19 21 21 20 17 16 16 17 16 18 32 37 65 68 66 64
47 44 43 40 40 35 39 51 59 57 67 31 27 30 29 17 11 10 10 11 16 20 23 23 26 23 17 18 16 17 23 23 20 17 18 18 25 37 30 52 68 68 65 64 64
46 42 38 34 33 36 47 55 33 41 33 41 40 36 27 21 14 11 10 15 18 23 21 26 25 19 22 29 23 25 26 24 22 24 21 26 38 51 53 59 62 63 62 62 64
45 40 38 35 38 46 47 42 42 34 46 27 23 21 22 18 16 13 14 18 19 20 21 26 19 21 24 30 33 36 31 29 25 26 25 27 36 51 49 55 54 59 60 57 58
44 43 40 40 46 38 32 31 48 46 40 24 18 16 14 17 18 14 14 16 19 22 25 22 28 27 29 28 32 35 29 27 27 28 31 25 49 44 44 52 55 61 66 64 60
44 42 41 43 52 64 46 46 49 40 53 18 18 12 14 18 16 14 14 18 19 22 24 27 30 30 30 26 25 30 28 28 29 37 39 43 50 44 47 55 56 59 64 63 62
42 44 41 48 47 50 48 42 40 69 39 21 20 17 18 19 19 17 18 25 21 27 28 28 25 25 26 26 24 23 35 46 52 49 63 50 45 52 54 54 56 54 57 58 60
41 46 42 54 64 54 42 40 57 79 26 26 25 19 21 23 22 20 34 38 35 34 36 34 33 30 27 31 29 35 48 69 69 76 71 49 56 53 44 44 48 58 58 58 60
45 44 48 58 61 48 40 42 54 46 29 23 25 24 27 26 30 30 35 40 34 37 44 48 47 33 28 29 32 37 43 73 59 71 63 48 60 56 50 49 49 50 54 55 55
44 45 61 48 48 45 55 64 62 52 23 28 29 30 30 26 33 35 37 38 32 33 42 46 39 29 26 26 31 35 45 40 70 72 79 64 48 43 46 53 51 51 50 54 59
47 62 54 53 43 42 71 77 58 36 26 26 33 32 35 30 34 40 38 36 31 33 34 40 45 31 26 29 29 28 35 55 68 57 56 54 59 67 54 56 52 55 62 64 65
56 43 59 57 39 59 64 73 56 28 30 25 30 34 32 33 37 42 43 43 44 36 34 38 40 38 35 35 37 39 41 50 54 70 72 77 60 42 53 55 56 64 65 64 64
64 54 72 55 45 81 68 57 40 28 31 32 34 30 36 39 53 49 51 45 51 44 32 40 53 60 40 34 33 32 38 45 62 45 83 79 60 39 53 55 57 59 60 65 68
74 89 73 47 53 79 50 44 32 29 31 30 33 36 38 54 58 57 56 50 44 46 43 38 50 69 53 47 37 34 37 60 62 70 61 71 57 49 56 55 58 65 65 69 67
80 82 77 85 63 46 46 40 38 35 33 34 34 39 42 53 61 63 57 52 40 39 54 47 56 50 60 46 43 32 32 51 52 77 66 67 44 51 63 66 65 64 70 72 70
84 68 61 69 68 67 49 42 41 38 33 34 34 36 42 51 58 66 59 53 42 45 46 48 53 49 49 51 37 32 35 44 46 50 54 48 58 49 70 72 69 67 73 71 66
86 77 71 54 49 54 61 52 45 40 36 37 40 51 42 49 50 65 59 51 38 44 54 65 69 44 48 64 61 42 38 41 44 44 55 47 63 64 67 64 69 72 72 69 61
63 72 63 81 60 60 66 51 48 44 51 51 52 58 56 54 57 62 59 61 52 52 71 66 73 59 48 76 53 50 44 50 44 42 46 70 61 74 69 69 78 79 72 69 64

GFSSW_925_rhum_030.txt.gz
RH
69 88 94 100 88 85 85 78 62 78 64 75 42 42 41 39 30 48 61 16 13 10 14 18 14 21 22 24 19 16 21 22 18 42 42 29 30 28 39 41 43 42 66 70 88
87 83 90 100 100 97 94 97 76 79 82 80 46 39 46 42 57 64 11 10 11 16 17 19 22 24 27 23 21 22 24 18 15 30 32 28 30 32 46 47 48 54 64 79 94
62 72 89 87 86 85 98 96 87 90 84 77 45 43 47 60 79 29 18 12 13 16 21 18 18 21 23 20 18 18 20 13 9 14 23 24 34 37 50 50 49 59 70 76 85
60 73 74 56 74 69 91 93 88 91 80 67 38 50 58 74 27 18 18 18 14 19 20 20 21 24 27 23 18 14 12 9 9 12 17 27 24 45 35 38 43 53 60 66 70
57 62 49 50 60 54 74 88 84 88 57 54 47 56 72 70 42 18 17 15 22 24 21 25 26 24 22 19 14 11 7 10 9 10 13 11 18 39 21 48 41 49 52 57 55
58 55 47 48 52 53 67 67 66 65 53 53 57 68 77 40 16 20 21 19 20 24 23 23 26 24 20 14 9 9 9 9 10 10 11 13 14 15 33 48 44 48 51 53 51
59 53 48 52 52 54 55 60 65 48 57 54 60 83 84 38 17 17 19 17 17 18 28 21 20 19 18 14 9 10 9 10 11 10 13 12 12 16 46 47 46 45 46 47 44
58 50 50 50 53 55 56 58 50 44 50 57 69 94 62 15 14 15 16 14 16 18 19 17 22 21 12 12 17 15 17 14 11 11 14 11 15 14 56 49 52 48 46 51 60
54 48 50 48 53 56 54 58 46 42 60 68 79 86 38 13 17 14 11 10 12 15 18 17 16 18 15 19 21 22 20 18 15 13 14 13 14 19 56 53 59 58 58 64 66
50 48 49 46 54 56 54 69 56 55 67 80 78 59 27 15 18 11 10 10 14 16 16 18 24 22 23 18 21 18 20 20 19 16 15 16 29 45 30 57 56 68 73 72 72
48 49 46 46 53 53 60 72 62 63 78 40 30 29 29 21 13 11 10 12 17 21 23 24 26 24 19 19 16 19 20 21 22 18 24 51 61 64 48 63 73 76 78 78 76
48 48 43 46 48 50 69 62 34 36 48 49 43 40 31 22 20 11 12 16 19 23 22 27 26 21 27 26 27 26 27 25 24 26 28 48 55 65 66 67 71 77 77 75 71
48 48 43 43 71 71 61 45 42 45 49 31 39 28 17 22 20 15 15 18 19 20 24 28 21 24 27 32 33 35 30 29 27 25 29 32 42 60 55 66 67 69 67 65 68
50 47 44 47 60 44 41 26 56 45 40 25 22 19 16 17 18 15 16 17 21 24 24 28 29 27 28 30 32 32 30 28 30 28 38 29 42 50 56 66 69 69 70 68 66
48 48 44 41 51 52 36 51 58 37 48 20 19 12 17 18 17 15 20 18 21 26 24 29 29 30 31 28 26 30 32 32 33 42 41 45 50 53 62 69 70 70 69 68 72
48 48 47 54 56 45 53 49 41 67 46 23 20 18 20 20 20 18 25 27 22 32 34 32 27 27 27 30 27 30 41 49 55 52 63 52 46 52 65 63 64 63 67 68 68
44 47 49 47 64 60 49 40 53 72 27 27 24 20 23 25 26 28 35 39 32 38 41 37 35 32 29 32 31 41 50 70 70 76 72 50 53 49 46 52 58 64 68 66 66
44 52 47 56 64 59 44 39 42 43 36 24 25 24 27 28 33 34 36 40 35 37 48 48 46 32 29 30 36 39 44 73 57 77 68 50 61 53 53 47 53 58 60 64 68
53 66 66 54 59 61 48 56 49 55 28 30 27 30 32 29 33 37 39 39 34 35 40 46 40 31 27 28 32 39 47 43 72 72 80 68 53 50 56 59 59 60 60 64 63
62 59 65 62 60 50 58 49 54 50 29 26 30 32 37 33 37 40 39 39 34 36 35 42 46 33 28 30 33 29 42 53 68 56 53 58 61 70 62 64 60 60 63 62 68
58 57 67 67 48 54 52 50 60 43 33 26 33 37 35 34 40 44 43 43 44 40 36 39 41 40 35 37 40 41 44 53 58 70 68 75 68 51 59 59 61 62 64 71 73
54 57 82 62 50 79 66 64 49 29 31 34 34 30 36 41 49 47 48 45 51 46 33 42 52 59 41 33 38 34 38 43 59 42 84 79 60 44 57 56 58 64 68 71 74
87 94 74 40 62 81 50 45 38 30 35 33 37 37 44 55 56 57 56 49 42 42 42 41 51 68 48 39 36 36 46 57 59 70 66 73 53 53 60 61 60 72 76 75 73
81 92 80 79 65 48 39 46 39 35 36 36 40 41 49 58 64 66 60 51 40 40 59 49 56 51 56 40 43 37 45 51 48 73 64 68 42 50 60 62 69 74 77 76 73
80 73 69 79 76 47 43 43 42 38 35 37 38 40 48 57 60 65 60 54 41 48 52 45 51 49 54 56 41 32 37 55 49 47 50 44 57 45 59 69 71 74 78 76 71
88 73 68 65 72 58 58 50 44 42 42 38 41 51 44 53 48 66 60 53 37 51 56 62 65 43 56 66 61 46 40 44 47 44 57 50 53 50 65 73 75 76 78 75 69
76 69 63 82 70 66 72 58 49 49 53 52 47 53 49 52 60 66 65 66 52 55 70 63 71 62 60 72 53 51 49 49 47 52 48 56 49 76 72 75 79 82 78 75 70

GFSSW_925_rhum_036.txt.gz
RH
90 89 71 94 92 92 93 98 97 91 93 100 72 78 68 89 45 69 41 19 17 16 19 19 17 15 14 12 14 12 12 17 28 35 37 28 31 28 26 34 36 40 46 58 93
64 72 75 92 94 92 91 99 100 91 100 100 93 79 67 94 75 49 23 17 15 17 16 14 10 14 12 12 14 12 14 13 13 19 22 26 22 28 30 31 37 45 58 78 97
63 61 60 82 93 86 72 90 94 84 99 100 98 93 89 81 57 14 19 23 18 17 14 16 14 14 12 13 13 12 14 10 10 16 17 21 23 24 27 30 30 37 66 85 91
54 57 62 65 58 62 58 77 75 61 100 100 98 83 86 89 21 16 20 19 14 22 19 17 14 15 12 13 11 15 11 10 8 17 18 20 21 28 27 25 26 28 54 76 78
53 58 60 62 56 53 51 61 61 63 100 100 96 89 81 50 25 16 19 18 18 21 19 16 15 13 12 12 13 14 10 9 9 14 18 19 23 26 27 28 32 43 57 56 53
54 59 60 62 59 52 53 55 60 91 100 100 99 97 74 38 16 25 23 25 21 19 17 17 13 13 17 15 14 11 9 9 9 12 19 21 27 28 30 33 44 53 48 37 32
55 60 60 60 56 53 55 54 59 99 100 97 100 93 65 30 20 32 30 24 23 19 16 16 15 15 17 17 8 9 10 11 13 16 17 18 23 17 29 34 43 40 36 31 24
58 61 61 59 55 55 55 57 65 98 94 95 100 96 41 23 22 25 23 24 26 22 19 20 19 17 18 13 10 9 9 14 13 15 13 16 15 18 30 30 33 32 33 33 29
59 62 61 56 55 55 56 62 67 90 70 99 94 83 30 20 19 16 19 14 22 24 23 22 20 18 16 14 11 12 10 10 12 11 14 11 13 22 32 28 34 34 34 33 30
61 62 64 55 54 57 61 65 65 71 82 97 82 67 32 15 17 17 13 14 17 20 21 21 18 15 13 12 12 13 10 10 10 11 11 11 20 22 34 29 31 33 33 33 34
63 64 63 55 56 60 65 79 60 54 65 32 25 29 19 18 18 12 11 15 18 16 16 19 18 14 11 11 10 10 14 12 12 15 13 15 18 22 30 34 32 33 35 36 38
64 66 61 58 64 63 88 46 30 45 33 34 32 31 24 23 18 11 12 13 15 15 19 19 17 18 18 16 15 14 15 18 19 16 17 22 24 28 28 33 33 34 35 38 42
65 67 62 69 74 92 73 44 53 46 45 29 28 23 17 21 15 12 12 14 15 16 18 16 20 21 17 17 18 20 18 21 18 20 20 22 25 32 36 39 42 42 37 38 41
66 72 74 72 73 72 64 43 49 53 35 22 22 18 17 18 16 13 15 14 18 17 20 21 22 21 20 20 21 22 22 20 20 19 19 20 18 26 34 34 41 44 46 45 48
66 76 77 52 60 51 37 37 50 53 31 16 18 15 16 17 14 16 20 15 15 20 21 25 22 21 20 23 23 27 22 21 20 20 23 22 20 21 34 36 37 42 46 50 52
67 78 92 88 81 57 64 72 58 50 39 22 17 19 19 18 16 17 18 17 20 22 21 24 22 21 23 26 23 28 27 27 26 25 29 22 25 13 17 25 37 43 50 51 49
70 82 95 79 43 89 61 57 45 43 23 24 20 18 17 20 21 20 22 22 20 28 28 25 26 24 24 26 28 26 24 25 33 35 30 34 30 16 26 29 34 45 49 48 45
75 89 97 76 65 87 70 48 42 21 24 21 18 17 20 20 23 26 26 24 26 23 23 23 32 24 25 25 22 25 23 25 26 32 29 34 33 26 32 29 33 37 42 42 41
84 100 96 80 63 79 50 54 32 28 22 22 21 21 25 23 20 25 27 22 24 26 20 26 28 24 26 25 24 29 27 30 42 56 47 25 27 26 33 33 36 39 40 40 36
87 91 63 73 58 67 55 45 27 31 24 20 22 20 25 24 22 24 28 28 29 28 29 29 33 26 27 25 28 28 27 34 34 43 30 20 23 17 35 35 36 41 41 36 33
69 56 61 73 65 63 54 35 27 36 28 21 18 26 22 28 22 21 26 32 30 29 28 26 26 34 30 28 25 34 32 31 28 35 26 23 14 25 27 30 33 36 36 33 34
55 56 98 80 68 59 41 29 35 30 36 25 20 22 25 27 30 24 26 25 34 27 29 32 31 40 31 29 28 27 28 27 27 30 42 42 20 21 28 31 32 31 33 32 36
53 61 97 69 64 60 38 32 38 29 30 30 27 25 30 30 34 34 36 43 41 32 33 32 35 41 38 32 30 30 29 26 31 36 36 56 18 22 28 31 31 33 33 37 41
45 71 87 61 37 37 36 33 35 34 32 32 36 36 38 39 42 46 44 43 40 36 58 33 36 32 34 27 27 35 33 29 26 35 24 28 14 18 23 28 28 33 35 40 44
44 49 47 67 48 36 31 29 32 38 33 32 36 30 33 45 43 47 43 39 41 61 42 34 36 36 34 33 32 28 28 31 28 24 32 18 19 12 15 18 22 31 36 40 45
50 50 51 44 37 36 43 34 30 38 34 33 33 36 36 39 31 43 39 36 35 42 40 40 41 42 44 41 38 36 29 26 28 25 27 23 23 16 18 23 29 38 42 43 44
75 53 35 64 39 37 34 35 29 39 48 40 34 38 43 44 45 40 42 36 32 40 45 43 49 44 38 42 39 62 37 27 25 28 29 30 23 20 27 29 29 35 41 42 43

GFSSW_925_rhum_042.txt.gz
RH
62 61 62 55 53 50 49 53 52 52 77 62 55 89 60 55 43 56 48 22 23 24 20 18 14 12 10 9 7 6 11 13 12 20 59 52 69 47 24 22 28 28 42 48 72
66 61 61 52 55 52 52 51 50 55 63 62 55 64 46 58 83 48 23 18 19 19 20 14 12 10 11 9 8 9 12 11 18 42 58 57 72 52 19 20 27 37 51 66 77
68 63 61 52 52 55 55 53 48 52 54 72 70 46 32 57 56 18 16 17 17 14 18 12 11 8 9 8 8 9 12 8 14 24 39 54 52 34 21 33 35 48 58 69 68
68 67 63 55 54 54 55 52 50 50 60 69 61 38 30 82 33 18 16 18 21 20 18 16 11 10 9 10 8 10 9 8 12 25 26 26 25 32 29 38 58 56 58 65 61
68 72 62 57 58 57 58 52 52 54 67 68 53 35 54 45 27 18 17 18 18 19 16 13 11 10 11 9 8 9 8 8 9 10 16 19 28 30 29 21 44 52 60 56 44
68 73 66 54 59 58 57 53 53 61 72 62 45 36 70 37 12 17 23 23 16 16 15 12 10 9 10 11 8 8 8 10 11 14 14 21 32 31 22 19 43 50 54 46 40
69 70 67 55 60 60 57 54 52 56 64 55 43 63 47 31 14 15 20 18 14 14 13 10 10 11 11 15 11 10 11 11 12 14 21 21 26 22 24 23 36 40 38 37 32
74 67 66 55 62 60 56 52 52 56 52 49 43 73 44 18 17 16 16 19 16 16 14 13 14 12 14 16 12 10 11 18 15 13 14 24 36 21 21 25 35 37 35 33 29
76 68 65 57 63 61 54 51 53 55 48 53 73 62 33 18 16 14 14 13 13 15 15 15 15 18 17 21 17 12 17 20 19 11 14 22 27 18 17 22 26 26 26 27 24
78 70 63 58 64 60 54 53 65 70 60 70 55 47 36 17 11 11 11 12 14 15 17 18 18 21 20 20 21 22 16 15 16 12 11 20 18 13 16 21 24 23 21 19 20
81 72 64 61 63 58 57 74 65 67 54 28 23 20 12 12 12 12 11 11 13 17 24 21 23 25 20 16 16 14 14 14 9 9 10 10 12 11 15 18 23 22 22 21 21
85 74 64 64 65 62 78 57 27 38 47 31 19 18 16 17 17 11 10 12 17 21 35 33 23 17 19 16 15 12 18 16 8 8 9 10 10 13 13 16 21 24 26 26 25
89 76 66 66 68 79 69 45 36 40 45 27 23 12 15 15 16 12 9 10 14 24 24 30 24 25 14 14 12 12 27 25 22 11 7 10 10 14 14 14 16 20 22 24 26
92 77 66 70 75 60 53 48 44 40 59 24 19 13 13 14 16 10 8 10 14 18 24 32 31 25 20 12 12 22 24 19 19 18 17 23 26 16 16 16 17 18 21 23 24
96 78 66 62 71 49 34 34 35 47 73 15 17 11 13 16 12 11 9 10 18 17 17 44 44 26 22 17 14 28 24 24 14 14 30 29 35 33 19 21 19 22 22 23 25
98 80 68 93 91 59 56 52 49 74 56 16 12 15 15 14 13 10 10 11 10 16 20 34 26 22 16 15 14 23 24 19 16 20 40 38 42 32 28 32 33 22 25 26 28
100 84 69 69 53 41 50 53 68 60 17 17 16 16 16 16 14 12 14 16 17 22 21 20 17 16 16 17 16 16 18 36 82 80 40 13 18 16 32 23 21 24 26 29 32
100 85 72 74 64 62 59 89 65 27 28 11 13 15 18 15 15 12 15 15 13 14 16 21 30 17 15 16 38 29 19 58 60 78 37 20 22 20 19 17 18 22 25 32 38
100 94 87 81 70 69 77 90 48 28 17 16 14 18 19 14 14 14 14 14 12 12 20 32 34 30 17 14 23 27 22 21 25 48 56 21 12 22 19 21 22 25 29 37 38
98 80 73 76 68 76 89 69 40 25 16 14 17 16 20 16 16 16 16 14 12 10 20 36 60 39 21 17 17 18 15 28 24 38 38 18 15 33 24 22 23 29 34 37 36
84 76 43 69 81 82 76 58 43 23 18 18 16 16 16 16 15 16 14 12 11 14 16 33 56 49 22 22 15 24 25 18 16 28 46 49 23 14 16 18 22 27 32 36 37
78 77 54 76 79 53 62 42 36 30 19 19 17 15 16 16 16 14 15 13 13 15 21 18 22 34 26 17 17 17 21 20 56 36 37 52 35 13 15 15 19 22 26 31 33
80 70 73 68 68 58 46 42 34 30 26 23 22 16 14 17 19 16 15 30 25 18 21 20 27 39 26 21 20 22 17 16 20 33 39 70 35 13 13 13 14 17 21 27 31
75 83 99 83 41 41 51 42 40 29 21 20 21 16 17 20 18 21 18 32 30 26 37 33 24 24 36 21 20 26 23 18 22 59 43 40 21 13 14 16 14 17 18 20 28
86 60 75 92 74 41 46 36 38 32 22 20 21 18 20 25 21 21 19 36 32 47 29 27 28 22 17 17 18 24 22 20 21 23 37 32 21 14 13 14 13 13 17 18 19
80 63 56 46 54 46 50 45 34 26 23 28 23 19 20 23 19 22 22 33 31 35 31 28 36 34 36 26 24 26 22 19 18 19 17 18 19 13 12 15 16 16 14 15 18
71 59 51 58 53 47 49 43 38 26 24 20 23 23 26 24 23 29 25 27 23 34 37 33 46 52 55 34 33 51 33 24 20 18 19 26 20 15 15 14 17 17 18 18 22

GFSSW_925_rhum_045.txt.gz
RH
68 64 58 56 46 52 52 52 52 45 44 42 40 46 58 52 36 39 66 16 22 22 20 14 17 20 16 16 14 11 17 17 15 49 57 57 61 72 63 75 44 55 61 85 86
68 64 61 57 48 51 53 55 51 48 42 41 40 49 52 52 66 59 15 16 24 23 21 19 19 16 17 15 14 13 20 17 16 50 56 58 46 63 58 58 67 84 92 84 78
70 65 64 58 47 49 53 54 50 47 43 42 42 41 40 57 72 35 16 16 19 18 18 16 15 17 15 13 13 13 15 13 19 36 48 52 48 40 44 39 52 62 77 90 77
72 64 64 61 48 50 54 54 54 46 42 44 42 41 39 72 42 18 16 16 20 20 17 18 19 19 16 12 11 13 12 11 25 37 43 49 42 39 37 37 56 76 81 80 80
73 67 64 65 52 51 56 55 53 49 44 45 46 53 48 65 51 15 20 18 20 22 20 20 22 17 16 13 13 12 11 11 26 34 33 38 56 47 44 48 46 54 57 75 80
76 70 63 65 55 52 55 53 53 49 46 47 49 62 86 59 11 20 22 17 16 17 18 18 18 12 14 14 19 12 11 11 12 20 24 39 54 39 43 47 50 54 58 64 72
81 73 65 63 56 53 56 54 52 49 49 49 55 82 69 49 6 12 20 19 15 14 17 15 13 14 18 22 21 14 13 13 15 22 29 36 52 50 42 42 59 68 68 66 62
88 77 68 60 57 54 56 53 50 50 51 51 66 90 78 14 16 20 16 18 18 15 14 14 14 19 16 19 22 21 13 20 17 22 30 27 43 36 43 56 67 67 59 51 40
96 82 71 62 56 54 56 52 50 51 53 54 76 86 68 27 24 16 16 16 18 18 16 15 16 21 23 26 34 20 20 21 21 17 33 33 35 30 36 45 51 50 48 41 34
100 88 74 66 56 58 56 50 54 57 62 74 75 65 48 28 19 14 14 14 14 17 19 20 24 28 30 32 38 24 22 19 23 19 26 27 27 26 28 39 44 46 43 38 33
98 94 77 70 58 62 57 65 81 88 70 56 44 38 17 16 13 12 12 13 14 27 34 50 36 37 30 28 19 19 21 20 18 16 21 26 26 27 25 32 35 34 34 33 31
99 98 80 71 58 66 65 80 56 45 70 48 40 32 24 19 22 18 11 16 20 40 45 45 57 31 21 23 23 22 23 23 20 12 11 15 18 20 22 30 31 32 31 29 31
93 99 83 72 63 70 66 53 30 39 72 44 35 38 26 17 22 21 13 15 20 44 44 54 43 32 22 26 25 30 33 26 30 28 18 13 17 17 18 20 29 29 29 29 31
96 99 86 67 71 60 73 41 35 43 91 46 30 29 17 13 24 16 13 13 15 28 40 38 30 30 29 30 24 34 23 27 26 33 35 24 37 24 20 20 25 30 31 34 40
96 100 88 64 78 77 51 56 40 51 95 33 27 14 12 20 18 17 12 14 20 20 29 41 40 33 36 30 23 27 25 27 30 30 33 32 44 34 25 23 22 25 32 34 35
87 100 90 80 77 51 49 54 50 93 91 28 20 19 22 21 20 15 14 11 15 21 28 28 29 27 30 28 26 23 25 29 48 47 48 33 36 45 28 26 29 21 25 33 47
83 100 89 75 70 62 54 67 88 98 27 22 22 19 22 22 21 18 19 20 24 29 40 29 23 30 28 35 26 29 32 57 69 80 70 34 37 42 30 23 31 26 24 42 44
70 100 93 73 54 67 74 89 96 47 40 18 20 21 25 21 21 20 21 25 22 22 30 39 40 35 29 25 29 34 36 59 70 84 70 31 40 34 28 26 26 27 34 39 52
66 100 98 79 51 71 96 97 72 46 26 26 19 25 26 21 21 22 21 24 20 19 26 51 47 39 29 33 26 41 48 35 58 67 77 42 22 28 28 26 33 35 42 55 57
100 100 94 80 58 82 99 75 62 38 30 29 27 24 29 24 23 24 24 18 19 17 27 38 54 51 38 36 25 32 26 38 48 40 41 36 30 46 36 32 36 40 52 54 52
97 98 71 76 85 98 90 74 58 40 33 34 25 24 24 26 22 21 23 18 18 21 34 46 45 57 44 46 34 29 31 27 31 53 59 70 42 19 29 30 37 44 50 54 52
87 94 61 75 97 85 86 62 52 43 37 41 27 25 24 25 25 23 22 20 18 22 29 39 55 72 54 38 28 21 28 41 65 39 53 72 50 18 23 28 30 36 44 49 47
91 80 79 70 76 86 64 61 51 46 42 38 29 24 23 26 31 26 24 38 30 24 30 30 39 67 47 38 32 25 26 21 31 58 48 67 51 20 16 15 22 27 38 46 47
91 93 96 84 41 52 68 56 55 42 44 37 35 28 32 29 25 32 44 37 37 39 38 37 35 43 53 33 28 28 28 25 30 70 50 52 38 29 23 21 20 20 19 42 44
98 69 72 94 84 54 53 50 54 54 40 39 39 32 33 33 27 29 46 44 36 43 31 36 39 27 27 30 29 25 27 29 29 37 49 42 37 29 22 22 18 24 22 19 27
97 82 78 77 68 73 57 52 50 43 42 42 41 34 31 32 32 33 40 44 43 41 36 36 47 35 40 36 34 36 32 29 29 26 26 26 28 23 19 22 23 21 21 24 28
83 80 65 77 74 79 63 49 45 42 40 34 33 38 34 32 27 36 30 39 41 50 47 50 52 68 58 44 40 52 35 30 30 27 25 30 29 30 30 29 29 28 31 29 32

GFSSW_925_rhum_048.txt.gz
RH
64 62 58 56 48 44 50 52 51 50 46 42 39 42 40 36 30 43 65 8 16 16 22 20 15 20 23 19 17 13 20 23 18 33 47 60 66 64 53 48 58 93 82 91 100
68 65 60 59 51 43 47 50 51 49 46 41 41 43 40 37 60 74 18 18 12 23 23 21 19 18 23 18 16 16 21 18 14 36 52 60 57 66 57 61 68 94 96 95 98
70 67 62 58 55 47 46 48 51 51 48 41 43 43 38 38 80 41 16 17 18 21 26 19 17 18 20 18 16 14 17 14 15 40 53 55 45 43 48 58 59 95 92 91 89
74 70 65 58 60 50 44 48 51 54 48 45 44 40 34 60 33 20 16 17 18 22 20 17 20 23 20 18 12 12 12 12 19 48 47 50 40 42 39 40 63 89 84 90 87
80 73 68 60 61 54 45 49 51 52 49 48 46 42 44 68 55 11 15 18 20 24 20 21 22 23 20 15 15 16 15 12 26 42 45 40 40 43 50 71 74 80 83 85 87
87 78 71 64 58 56 45 50 53 53 51 50 50 46 79 69 12 22 28 22 18 22 18 20 21 19 19 16 20 22 21 17 34 39 40 38 40 34 50 60 71 70 80 83 85
98 86 77 68 60 54 46 52 55 53 52 55 55 66 85 46 12 24 16 21 17 11 18 17 18 19 17 21 21 23 14 15 31 37 44 43 41 41 45 47 59 61 60 67 72
100 93 83 73 64 55 48 52 54 53 50 58 60 79 79 13 21 30 19 19 20 15 14 15 16 21 18 19 24 26 16 21 19 30 36 29 36 35 45 52 59 69 69 68 70
99 98 90 79 67 58 49 52 53 51 52 67 71 80 79 24 31 15 17 18 16 19 15 15 17 22 26 29 35 29 21 24 20 23 31 26 30 32 55 60 79 80 76 70 73
98 92 94 83 70 60 49 51 52 70 72 84 78 63 50 24 22 18 11 16 18 21 22 25 31 32 35 37 43 30 21 19 22 21 31 31 30 30 58 66 71 74 62 50 68
88 92 96 84 72 59 52 50 69 77 74 54 44 46 24 22 19 18 13 16 18 28 32 39 41 44 38 36 29 25 21 23 22 18 33 35 28 28 56 57 60 60 56 50 54
81 84 97 86 73 58 61 76 60 48 65 54 51 45 36 30 31 22 14 19 24 37 44 38 38 33 35 27 27 25 26 31 22 22 23 30 28 27 44 52 51 50 50 42 45
78 86 97 87 71 57 66 58 46 40 72 60 49 49 42 38 33 25 16 18 33 43 44 41 31 30 34 27 32 30 31 30 30 27 19 19 19 23 24 34 42 42 40 36 35
75 88 99 84 65 63 80 61 54 52 84 61 50 40 30 18 19 18 17 16 25 40 40 33 26 30 35 33 29 36 28 29 26 32 31 23 26 30 24 28 36 35 36 34 35
73 92 100 80 72 76 63 60 60 62 58 30 36 25 23 18 20 19 16 16 18 35 38 38 37 36 35 31 25 36 30 29 27 34 38 35 37 32 25 27 38 36 35 32 36
69 99 100 92 81 49 47 54 60 83 73 40 31 25 20 18 20 18 17 15 17 24 28 30 33 29 30 30 29 30 26 45 51 50 50 38 39 36 32 24 23 32 34 38 44
68 91 100 82 68 67 66 67 92 86 40 34 27 21 25 26 24 23 20 20 23 31 33 29 32 32 31 33 29 28 40 58 62 74 60 39 43 39 30 25 26 29 37 44 48
70 80 99 90 63 68 73 88 88 59 54 29 23 24 29 27 26 23 24 25 22 26 43 41 40 35 34 31 34 36 38 59 48 79 60 44 45 36 31 26 25 29 27 45 57
76 88 100 98 77 66 95 93 79 64 35 30 22 31 31 26 23 25 28 29 23 24 30 52 46 38 37 36 34 33 42 37 64 67 83 51 27 30 31 29 35 34 41 49 65
98 98 97 99 89 76 96 75 66 48 41 36 32 30 36 29 30 28 28 24 23 23 23 37 53 49 42 30 28 32 29 45 56 48 48 39 35 48 36 33 37 42 45 65 69
89 98 70 92 79 92 88 76 58 41 43 49 43 34 31 31 28 31 27 20 21 20 31 42 48 49 50 46 37 34 32 31 40 55 55 66 42 28 38 37 43 46 54 64 65
85 86 76 88 92 89 83 63 56 48 45 49 48 49 34 33 31 31 29 22 25 36 37 40 59 64 42 34 37 42 44 42 64 37 57 73 46 26 34 35 43 45 53 60 57
82 80 95 79 92 90 69 60 58 51 49 47 47 42 27 30 30 31 28 32 38 33 39 42 54 67 53 38 40 42 38 33 49 59 54 68 52 24 21 25 32 41 50 55 56
80 90 99 90 69 62 68 71 73 49 48 47 51 47 46 31 28 32 39 38 41 35 50 41 46 52 61 41 33 34 31 28 38 69 52 56 37 30 27 26 22 28 36 56 54
95 73 77 94 86 69 57 63 70 66 44 46 49 48 52 38 30 37 47 42 39 40 34 38 41 36 34 31 30 29 29 29 32 39 47 40 43 32 29 23 25 24 22 37 52
93 84 80 82 66 73 60 60 60 52 45 41 54 52 49 42 34 36 48 44 39 38 33 40 42 35 38 39 34 33 29 30 31 28 32 31 32 37 31 30 33 30 32 35 38
67 86 74 66 73 80 73 56 52 43 42 33 42 47 53 43 31 30 38 43 41 43 47 49 58 66 55 46 41 59 39 33 29 29 30 36 34 31 41 37 37 45 41 41 45

GFSSW_925_rhum_051.txt.gz
RH
67 64 60 57 53 43 40 43 46 48 50 50 41 39 39 37 29 39 56 11 16 11 18 19 20 19 24 22 19 16 26 25 19 21 30 65 63 61 58 58 90 90 83 94 100
73 68 65 60 56 53 44 43 47 50 52 49 43 41 37 38 43 71 21 18 17 24 23 22 18 18 24 19 19 20 24 20 16 18 47 67 61 60 56 76 94 95 97 100 100
77 73 68 64 57 56 52 44 48 52 54 51 45 41 36 36 55 35 19 18 19 20 24 22 18 18 20 19 18 17 19 15 14 28 54 61 56 56 56 60 88 96 96 94 92
84 79 73 67 60 58 57 46 48 53 54 50 46 42 35 57 16 21 20 17 19 21 24 19 21 24 24 20 14 14 14 13 13 51 51 56 46 45 49 48 75 84 85 87 92
96 87 80 73 66 58 58 50 50 53 55 50 48 44 40 54 41 11 25 20 22 23 22 20 23 24 22 19 16 16 17 19 28 45 44 44 44 45 74 91 84 80 82 88 84
94 97 86 80 70 63 59 52 50 54 55 52 50 48 70 43 15 24 26 21 23 25 22 21 20 20 23 20 22 21 26 42 44 46 43 39 45 40 74 90 93 92 92 83 77
92 96 95 86 75 67 58 52 48 56 57 53 54 63 83 33 16 36 22 18 21 21 18 18 19 20 20 22 21 23 17 37 41 43 38 35 36 45 73 83 93 91 90 84 81
90 89 93 90 81 70 60 50 47 56 58 57 64 74 65 17 20 15 19 21 20 20 17 16 17 22 22 21 25 26 18 32 32 39 36 30 35 50 68 76 79 79 84 86 80
94 88 92 97 87 71 61 44 46 55 62 69 70 82 72 23 32 16 21 21 19 20 21 17 18 25 28 31 36 32 22 25 26 32 40 36 30 40 57 65 71 69 73 82 82
82 99 94 99 93 76 62 42 50 69 82 87 83 65 35 22 24 22 20 20 18 24 24 26 34 34 42 40 44 35 28 22 22 23 33 39 30 51 54 55 61 86 80 80 86
79 80 100 100 97 77 58 48 60 78 79 56 39 37 30 27 28 21 19 19 20 27 32 42 38 40 37 37 35 34 29 25 21 20 28 37 34 30 61 73 79 87 81 78 80
80 81 100 100 98 80 64 73 53 55 68 57 54 47 38 38 43 32 18 20 25 32 41 37 40 32 33 34 30 28 30 30 27 24 28 35 38 28 62 71 70 71 72 62 78
76 76 93 100 98 81 65 54 63 62 64 56 52 53 46 42 48 44 19 22 31 44 43 42 28 30 31 31 30 30 31 32 32 29 23 27 30 29 48 58 61 61 59 52 65
68 71 85 100 92 67 75 62 66 68 66 48 62 52 43 40 28 25 18 18 32 34 46 38 31 29 34 33 31 36 30 32 31 31 29 24 29 28 35 52 56 56 56 49 55
64 68 94 100 71 82 67 56 58 63 42 25 47 32 35 24 20 22 18 17 26 37 36 35 36 34 34 31 29 36 31 34 31 35 37 35 39 33 30 45 47 54 52 47 45
76 72 97 100 96 59 58 55 65 72 57 36 36 41 26 19 17 20 21 16 20 36 31 31 33 30 32 29 30 28 30 41 50 47 50 38 40 41 32 27 28 40 45 44 42
69 77 97 99 80 70 64 73 89 89 34 39 40 29 27 24 19 22 22 26 28 38 37 31 31 32 33 31 32 33 43 55 62 69 57 41 46 42 30 29 25 32 39 43 42
72 82 89 100 79 69 78 90 95 60 60 43 26 29 26 28 26 29 26 28 23 28 44 43 46 34 31 33 37 38 40 59 45 68 55 46 55 38 30 35 27 32 40 44 47
77 91 96 99 91 78 97 97 77 61 46 34 26 29 31 29 28 26 30 29 26 27 32 46 41 44 37 36 31 36 45 37 65 71 82 54 39 31 34 32 40 36 37 49 60
96 95 88 97 100 80 99 71 67 54 49 50 34 32 39 35 32 30 34 26 25 26 29 40 38 47 45 37 36 33 34 43 55 49 55 42 40 45 37 32 34 52 47 48 62
86 95 67 94 98 92 92 74 60 46 44 55 54 40 35 34 33 36 31 23 25 27 26 43 37 40 42 41 34 37 37 36 46 55 56 65 48 29 38 34 35 37 48 67 78
86 94 95 93 98 87 83 64 53 50 45 51 52 57 47 35 36 34 33 26 22 37 34 40 51 58 43 34 35 35 39 45 66 43 61 74 49 26 30 36 40 42 44 65 70
83 80 100 76 91 91 68 64 61 54 56 53 53 51 48 35 34 36 35 28 39 35 43 45 54 60 44 38 46 49 47 44 53 61 59 69 53 27 27 27 34 45 46 62 68
85 94 98 90 68 66 73 73 72 52 58 54 55 50 48 43 38 36 35 40 43 38 49 43 55 49 56 41 38 41 37 38 47 72 53 60 40 30 26 30 29 26 40 53 65
92 77 71 89 87 78 63 68 74 65 56 49 55 54 55 55 34 35 47 44 40 53 42 40 45 43 40 32 30 28 30 41 41 42 48 40 46 37 35 28 28 30 26 34 58
80 95 87 89 67 72 68 67 69 64 56 56 52 52 48 57 46 36 48 46 43 39 40 42 46 34 46 40 37 35 33 33 34 35 42 38 37 31 32 35 43 41 42 48 54
61 78 89 70 74 79 70 62 61 59 56 49 44 45 50 57 49 43 42 43 39 46 48 46 59 59 49 48 43 58 46 37 32 31 33 40 35 32 41 46 48 49 49 52 56

GFSSW_925_rhum_057.txt.gz
RH
82 81 80 78 72 69 62 57 56 46 46 50 48 47 42 40 33 42 50 18 16 12 21 23 23 24 25 21 18 18 21 22 20 18 18 54 58 59 57 68 79 77 74 88 100
92 89 85 84 81 74 67 58 57 50 45 49 49 45 41 38 48 58 26 20 14 19 23 20 20 24 23 21 20 18 23 20 16 14 18 53 53 52 56 77 81 83 94 100 100
100 98 96 91 88 83 74 64 56 53 45 48 49 46 40 36 46 17 28 24 18 24 22 19 17 18 20 20 19 20 20 17 15 14 19 38 56 49 53 66 70 83 92 97 98
98 100 95 96 97 90 82 72 62 54 47 48 52 47 40 48 13 23 16 26 24 24 22 20 19 22 24 22 19 20 17 16 13 14 43 39 48 52 54 56 66 71 85 93 93
95 91 98 97 92 98 90 81 70 58 52 50 54 51 42 41 30 16 25 24 23 23 21 21 24 24 23 22 20 17 16 20 20 31 42 44 48 54 76 82 73 80 87 87 87
85 92 91 94 90 92 98 89 78 66 58 53 58 56 60 39 16 21 31 27 24 24 24 22 22 22 23 25 22 21 21 32 43 44 43 44 53 53 79 80 81 82 81 82 80
76 83 90 92 87 95 93 96 87 72 63 55 59 66 74 37 18 31 30 28 25 23 20 19 19 22 23 26 22 24 26 31 42 42 44 40 44 42 75 79 84 82 82 81 78
72 83 87 91 92 98 96 96 94 77 67 57 70 73 58 21 19 17 28 30 23 26 22 18 20 23 25 26 26 25 20 27 33 39 42 36 39 62 77 79 79 84 83 82 79
73 82 80 88 90 99 100 98 93 80 61 79 84 76 51 27 26 22 17 19 25 28 25 21 23 29 28 31 29 31 25 25 30 37 39 34 32 58 81 82 76 78 75 76 76
86 72 82 81 82 95 98 95 83 72 92 99 92 68 45 22 24 27 27 22 22 30 31 30 32 31 36 32 32 34 34 30 25 26 37 39 36 64 85 85 76 67 74 73 75
88 76 79 81 82 86 99 84 49 72 95 64 52 49 25 29 36 31 28 26 26 27 34 42 35 37 32 36 32 32 33 30 25 22 36 37 34 44 83 81 76 72 72 70 67
88 86 71 79 85 99 100 77 53 69 79 61 62 56 43 38 44 33 26 26 28 29 40 36 42 35 32 36 36 32 32 30 27 26 28 29 26 30 73 79 68 65 64 60 62
83 84 74 79 87 100 95 80 64 62 87 63 54 53 47 42 43 37 25 26 27 35 42 42 32 34 35 33 34 31 32 34 32 30 25 24 23 32 51 60 62 58 56 56 59
80 85 78 74 98 96 84 74 65 74 85 48 51 50 51 44 40 34 22 25 35 29 41 36 34 34 35 35 31 33 29 32 34 34 32 27 33 28 30 54 60 56 58 58 62
76 80 80 77 96 87 73 78 74 68 52 28 63 44 49 38 28 38 23 23 36 37 37 33 38 38 38 34 32 32 33 34 35 37 37 36 33 27 29 30 44 54 56 60 57
78 78 81 74 95 81 78 81 70 84 76 30 52 56 55 43 25 28 26 23 31 38 38 32 33 32 30 33 32 34 38 39 42 42 44 36 34 30 26 26 27 32 46 58 56
78 81 81 83 86 78 89 75 93 90 43 35 53 44 45 38 26 30 33 33 34 42 44 34 33 31 33 33 34 33 36 44 52 53 45 43 42 31 27 26 26 26 32 49 54
72 85 81 76 88 88 78 95 94 60 62 41 38 45 38 29 27 29 34 34 30 30 40 36 37 35 35 31 34 37 36 50 44 48 40 42 43 24 29 26 33 34 34 33 53
69 91 92 80 81 96 94 97 67 60 49 44 31 43 42 28 27 30 38 31 29 33 32 47 37 37 38 37 31 41 40 38 58 68 63 43 33 22 26 27 32 36 34 36 41
82 96 91 76 79 100 98 72 65 52 51 52 51 36 46 35 34 33 39 32 30 31 31 39 37 44 40 38 39 35 36 45 49 54 54 40 37 27 24 28 32 30 37 36 43
87 92 68 71 90 95 91 67 58 52 50 55 66 63 37 39 35 38 36 27 27 30 29 37 33 36 42 39 35 42 41 44 40 46 45 48 34 32 24 27 33 34 36 40 41
87 94 69 74 96 90 84 64 54 51 51 53 58 62 57 40 43 40 34 28 29 33 32 38 44 53 38 37 35 36 39 41 53 48 58 57 42 28 29 27 31 32 34 39 48
96 91 90 73 90 82 66 61 54 58 55 57 58 56 54 50 37 41 38 30 39 35 40 44 45 45 36 36 43 42 42 44 50 55 55 65 43 27 29 27 27 28 29 34 45
97 98 98 90 60 66 72 66 71 52 58 56 58 55 54 50 50 36 40 35 42 33 52 38 48 40 36 33 37 51 49 46 45 59 51 50 37 30 28 28 26 30 30 28 30
98 91 75 95 81 74 61 59 60 66 53 59 63 59 57 51 53 43 46 49 46 61 45 41 43 45 36 32 37 37 41 49 44 42 48 39 42 32 30 29 30 38 41 54 56
96 95 85 76 67 76 68 70 60 58 62 61 63 63 56 59 53 56 50 46 47 51 49 47 44 51 43 42 38 37 35 43 44 41 42 38 39 32 31 35 43 52 57 64 71
91 84 63 65 76 76 71 58 63 55 57 52 54 57 59 56 55 46 49 52 50 43 54 53 60 59 50 48 44 59 48 41 40 39 39 46 37 35 37 44 50 57 63 68 72

GFSSW_925_rhum_060.txt.gz
RH
100 97 90 88 86 83 77 68 58 48 50 42 42 46 42 42 32 56 29 20 19 16 24 26 21 21 17 12 12 12 13 13 13 13 16 24 31 48 42 41 48 51 48 58 100
100 100 100 96 94 91 85 78 66 57 49 43 41 46 42 40 54 35 25 20 14 17 22 15 14 16 15 14 12 14 14 12 10 10 12 14 28 37 43 43 48 70 86 98 100
95 93 99 100 99 97 95 86 79 66 54 47 42 47 43 35 37 16 26 22 14 18 22 17 13 15 15 14 14 14 13 12 12 12 11 12 23 24 33 31 37 54 88 92 93
86 90 90 98 100 93 91 95 86 77 65 54 43 48 42 58 16 24 17 28 18 32 21 15 12 14 16 16 14 16 12 13 13 12 14 17 21 32 32 39 43 51 76 89 91
82 82 85 91 92 96 89 91 94 87 75 63 52 49 51 29 19 17 15 27 25 31 17 13 12 14 16 14 16 17 13 14 16 22 20 28 28 33 40 47 53 64 82 83 83
84 79 80 80 90 93 89 89 92 93 89 72 62 53 53 31 19 21 31 35 26 23 17 13 15 16 18 18 19 16 16 17 24 25 29 31 34 35 44 54 64 74 79 77 80
83 69 75 82 82 88 92 98 92 92 96 83 68 74 54 31 24 30 31 28 24 20 15 15 15 18 19 18 18 18 20 17 26 27 30 30 33 31 41 58 73 73 73 71 71
84 83 67 81 84 84 94 98 90 92 92 83 63 77 42 28 29 29 31 29 27 23 20 18 18 19 20 19 18 18 18 17 25 28 32 31 26 29 44 51 58 71 66 69 70
84 86 73 77 80 81 84 92 91 90 88 73 83 66 35 29 30 22 23 24 25 25 24 19 19 21 23 21 18 16 18 16 27 27 28 30 24 33 48 47 42 51 54 58 62
85 86 85 70 80 83 78 78 90 90 94 98 81 62 33 19 20 30 26 20 20 24 24 23 22 24 22 21 20 16 20 17 17 23 28 25 21 27 47 46 42 40 44 53 52
80 86 85 71 76 86 89 87 62 58 75 39 38 32 22 24 32 26 28 23 17 22 25 26 25 26 19 19 26 20 20 18 17 18 26 23 21 17 37 52 44 38 38 44 47
76 81 84 76 76 83 99 72 56 64 59 41 43 37 35 34 33 27 26 20 22 26 25 29 27 20 22 24 27 24 19 18 20 20 23 19 18 16 25 44 42 39 42 38 40
78 80 82 82 77 96 98 70 67 66 61 45 39 35 28 34 30 22 22 17 21 24 26 24 22 24 26 26 28 25 23 22 21 21 20 20 17 19 28 38 45 47 40 33 34
72 82 82 82 81 84 79 74 73 75 62 34 44 38 32 27 33 19 22 16 20 24 22 23 19 26 25 26 23 26 19 21 22 21 23 20 24 18 18 28 35 36 40 38 32
76 79 82 80 98 82 71 83 81 74 31 24 43 34 32 24 20 22 19 19 20 22 25 23 26 27 26 22 22 22 23 24 23 23 27 24 23 17 20 19 23 31 33 36 36
84 73 86 81 89 84 80 88 74 67 41 26 45 50 45 32 25 22 22 18 14 22 23 19 23 23 21 23 23 23 27 28 28 28 33 24 23 18 15 15 16 16 24 28 32
75 80 90 70 67 78 93 75 73 54 24 24 48 48 35 31 28 24 24 27 24 30 30 24 23 22 24 26 27 26 26 35 42 39 34 28 28 19 16 17 18 19 19 20 27
75 83 83 82 72 91 88 96 59 21 28 30 36 41 40 24 24 24 25 25 18 19 21 26 30 23 24 24 24 27 25 31 38 36 30 30 26 17 18 17 20 23 24 24 23
83 90 88 88 74 98 92 88 32 30 28 29 32 47 40 24 22 26 26 23 20 19 23 25 22 23 25 25 23 31 32 25 37 51 44 25 20 16 16 17 21 20 21 23 22
87 98 86 83 82 98 91 58 33 29 32 43 31 35 48 31 27 25 27 21 21 18 15 23 26 26 32 28 29 29 24 34 33 42 39 27 25 18 17 20 16 16 17 20 26
90 96 66 83 82 98 88 53 37 31 38 46 38 44 31 31 25 27 27 22 19 23 18 20 22 39 34 32 26 32 32 31 28 31 37 36 25 16 16 17 22 22 20 21 25
86 98 73 76 97 92 78 47 36 34 41 45 48 50 48 30 26 21 23 20 19 19 26 21 22 30 27 29 27 23 26 28 34 34 37 40 30 14 16 19 18 19 21 24 28
96 96 85 70 92 91 62 52 37 39 36 46 48 45 48 46 33 25 22 20 22 20 22 24 27 33 30 31 32 28 26 24 28 33 32 48 30 18 20 20 19 18 18 22 26
97 100 99 93 49 62 63 51 49 36 38 41 45 44 47 44 40 33 30 33 29 22 38 30 23 27 32 23 19 28 26 25 27 36 28 30 24 18 18 17 16 19 20 20 21
98 85 82 94 79 50 50 45 49 49 41 44 46 47 43 46 46 45 34 41 34 50 27 26 27 25 20 18 16 18 18 21 24 24 25 24 20 22 19 18 18 24 26 32 36
99 57 68 55 61 59 53 55 43 40 40 46 45 44 46 51 46 50 39 39 36 41 32 32 28 28 29 22 22 22 20 18 21 20 26 24 23 18 18 21 24 30 34 40 48
91 44 48 50 60 63 56 54 43 37 39 35 43 50 56 45 41 40 39 39 38 42 41 37 33 38 35 31 32 51 32 22 23 26 26 26 22 17 22 24 27 35 40 46 53

GFSSW_925_rhum_063.txt.gz
RH
89 98 99 100 96 92 90 86 82 76 63 50 40 34 40 35 28 36 28 21 17 18 27 21 17 14 13 10 9 8 10 10 10 10 14 17 17 31 30 30 32 35 39 85 99
83 87 94 99 100 99 97 92 91 84 77 63 50 36 29 36 54 28 20 21 16 16 23 16 13 12 12 11 9 10 11 10 9 9 10 10 12 19 26 18 34 49 63 90 96
84 84 88 88 92 99 97 88 87 93 86 76 61 42 30 34 31 15 22 22 13 14 18 12 10 10 12 10 10 10 11 9 9 9 10 11 12 14 24 25 47 38 73 85 88
86 84 81 82 85 87 96 98 89 90 94 88 75 56 29 54 21 21 22 22 14 23 20 14 11 12 12 12 10 12 9 9 9 10 11 12 12 17 20 31 34 46 71 83 88
83 82 82 80 81 84 87 87 85 90 92 94 86 71 48 28 20 22 17 16 24 27 20 12 11 10 12 11 10 12 10 9 9 11 14 15 16 18 24 34 48 63 75 84 81
85 83 79 72 79 81 84 83 81 88 91 95 92 76 46 38 16 21 26 39 25 24 16 11 9 9 14 13 13 11 12 11 11 13 15 18 16 25 29 37 59 70 74 76 73
83 85 84 67 76 81 79 79 82 83 90 92 90 77 50 36 19 18 24 23 22 19 13 10 11 14 13 16 12 13 14 12 12 14 14 17 20 57 33 40 55 60 64 65 67
80 82 83 85 68 75 81 81 83 81 92 89 83 66 50 25 21 19 20 23 22 17 15 12 14 16 16 13 15 14 13 16 16 14 15 18 57 64 30 40 50 47 47 52 45
76 79 82 84 72 74 78 78 77 84 90 88 75 60 38 25 24 20 18 17 22 19 18 16 16 17 16 18 16 13 15 20 25 14 17 18 39 49 22 29 39 39 40 48 46
73 75 80 83 80 72 77 71 70 84 90 79 62 50 35 19 16 16 16 16 19 19 20 20 19 20 18 17 19 15 13 15 12 21 16 16 18 29 25 25 29 32 36 40 42
78 73 78 81 80 71 82 66 58 67 61 35 25 23 18 17 20 19 15 17 17 20 24 20 22 22 17 16 14 17 14 13 14 14 17 18 22 16 26 25 28 30 31 37 36
87 74 77 79 81 73 96 55 35 53 42 30 34 26 25 22 27 17 16 19 21 24 19 22 25 16 15 16 19 18 17 14 14 14 17 16 20 16 16 26 24 27 26 32 34
74 83 75 83 81 77 75 56 48 54 51 27 21 25 21 19 26 20 16 16 19 20 19 23 18 14 18 18 21 20 18 23 21 23 15 16 16 14 14 21 25 25 25 27 30
79 87 78 87 74 50 56 57 55 64 48 17 32 26 20 17 25 16 15 15 16 20 18 20 15 18 18 20 19 23 15 16 17 18 22 24 30 26 15 19 24 28 32 30 26
74 86 82 82 68 59 46 48 60 68 26 14 26 24 21 23 11 15 14 13 17 18 18 20 17 20 22 20 17 20 19 18 18 22 23 21 18 30 14 12 15 22 30 27 23
78 81 85 90 76 75 76 61 67 54 29 18 30 33 34 27 17 12 15 15 12 15 16 17 13 16 17 15 17 16 20 20 20 21 35 23 21 25 17 12 10 11 18 23 23
74 75 86 76 68 55 78 82 52 37 12 14 32 35 31 31 25 18 18 23 21 24 24 19 19 16 16 21 19 20 23 32 39 51 36 27 20 21 22 12 12 13 12 16 21
73 72 79 78 67 64 83 92 45 17 16 21 25 36 36 24 26 21 23 24 19 15 20 23 27 19 18 18 22 23 22 34 52 45 52 21 21 18 12 12 12 14 15 16 17
77 80 90 82 79 70 98 87 38 20 10 12 23 37 38 26 22 22 23 20 19 15 21 21 20 14 15 16 17 23 27 22 32 29 33 21 16 12 12 11 13 14 15 16 17
91 68 81 80 80 77 99 78 28 14 10 14 20 24 34 27 26 25 22 17 18 13 13 17 22 15 17 18 18 26 20 30 26 44 41 22 19 19 15 16 13 13 13 13 17
89 90 60 81 86 93 96 63 42 14 14 18 24 15 24 31 24 26 22 17 15 14 13 15 19 23 24 26 21 25 29 25 30 38 39 32 21 15 14 13 14 15 13 14 16
88 97 63 82 97 76 81 52 41 26 16 23 34 18 27 28 28 28 23 18 14 14 20 16 20 29 27 15 15 18 22 23 32 29 27 31 28 13 13 12 14 14 14 14 17
96 93 75 82 94 73 46 50 46 35 21 26 34 33 31 34 32 30 26 20 16 16 20 18 23 30 25 26 21 23 21 21 23 23 33 50 31 14 14 15 14 14 13 15 17
97 98 98 94 52 53 47 43 45 38 28 23 27 32 43 45 34 30 28 24 24 19 34 26 21 25 29 24 21 24 20 19 23 38 31 26 20 16 14 15 13 13 14 14 16
97 89 85 95 87 52 41 36 40 37 31 24 30 30 41 44 35 38 28 32 30 37 26 22 26 22 18 16 16 16 18 19 21 22 28 22 19 14 14 14 14 17 17 18 21
97 57 64 56 70 56 48 39 38 28 28 39 34 30 31 41 38 41 33 32 28 26 28 22 29 25 23 18 16 18 15 14 14 15 16 15 16 12 12 11 15 17 20 23 29
78 40 53 60 65 60 51 38 30 28 27 24 26 31 34 40 40 40 37 36 36 36 28 28 33 31 36 21 21 34 20 17 16 15 16 21 17 13 14 14 15 17 23 27 37

GFSSW_925_rhum_066.txt.gz
RH
84 86 91 98 100 100 98 95 91 87 87 83 78 64 45 31 23 39 30 23 25 16 21 24 18 16 13 12 9 8 12 12 11 13 21 22 20 16 19 17 38 62 75 88 100
83 84 84 87 90 93 100 99 94 85 86 87 82 77 59 36 47 35 24 20 20 14 22 19 14 12 13 12 9 9 12 11 10 8 9 10 12 12 24 43 50 55 68 94 96
82 83 83 83 83 86 90 96 98 85 88 89 84 79 67 43 39 22 21 19 19 12 19 16 12 10 12 11 10 9 11 9 8 8 9 10 10 12 14 52 61 65 64 86 88
84 81 81 80 80 80 80 86 88 84 86 91 88 81 69 55 29 25 17 18 17 11 18 17 12 13 12 13 9 11 9 8 8 8 9 11 10 12 25 45 43 48 72 81 85
84 84 83 81 74 75 78 79 83 79 82 89 90 84 75 35 26 23 17 18 19 19 18 16 14 12 12 10 9 10 10 8 8 8 9 11 14 14 48 47 51 65 72 84 82
77 81 84 83 80 65 75 80 78 79 82 87 89 90 68 50 22 15 21 28 22 21 18 16 12 9 10 11 13 10 11 10 9 9 9 13 16 34 57 84 60 63 71 70 72
76 77 81 84 84 70 70 74 78 75 83 88 90 91 64 44 25 18 19 19 22 19 17 13 11 9 13 15 12 12 14 11 10 10 12 11 17 44 55 70 61 64 64 63 64
74 77 79 82 83 82 64 67 75 77 82 86 90 86 61 26 22 21 21 18 17 19 17 13 10 12 15 14 15 14 14 16 11 12 14 14 24 44 47 51 51 51 54 56 57
80 73 74 78 82 82 73 60 64 68 76 78 89 71 45 20 26 22 16 16 16 19 16 14 13 16 16 19 20 15 17 14 13 14 15 20 37 56 48 43 55 41 45 43 49
69 81 73 73 78 80 77 56 51 79 76 82 71 52 36 21 14 17 17 16 14 19 18 18 18 20 19 20 26 19 17 16 13 17 16 15 54 59 52 47 49 34 41 41 45
68 71 80 74 73 77 79 62 54 80 73 49 35 34 15 17 14 15 14 16 14 20 26 20 23 24 20 19 18 16 16 17 16 15 17 17 18 38 44 33 34 31 37 42 36
69 67 75 79 71 74 80 63 24 43 52 38 42 36 27 21 24 16 15 17 19 26 22 23 28 18 16 15 16 18 18 16 14 15 15 14 16 27 30 21 20 26 30 35 35
71 71 66 82 82 77 72 57 39 44 50 28 20 17 22 22 23 20 15 14 19 24 23 27 21 17 16 17 18 18 16 20 24 17 15 17 17 17 15 18 18 22 23 32 33
72 69 73 87 80 62 53 44 46 48 58 16 14 18 14 17 20 17 15 14 17 22 20 21 16 17 17 20 17 21 14 18 17 19 22 21 34 26 19 16 21 20 24 26 30
76 70 72 88 56 60 47 53 44 57 40 8 11 18 17 20 13 16 15 16 19 19 18 20 18 18 21 17 16 20 19 21 18 19 21 23 35 24 19 17 16 21 26 29 29
86 72 71 95 85 66 62 73 61 69 31 13 24 28 24 20 17 11 18 16 14 17 16 16 13 14 16 15 16 15 18 20 21 22 34 22 28 29 22 23 14 20 26 29 28
79 77 77 83 79 58 61 84 78 46 10 10 25 26 26 26 22 16 19 25 23 26 26 18 17 14 13 18 16 17 22 36 43 43 42 22 25 24 27 20 16 12 23 28 26
78 77 80 77 77 70 70 98 68 23 19 13 11 24 30 26 27 24 18 22 21 17 22 27 29 17 15 18 20 22 22 38 58 83 62 43 28 17 16 13 12 12 13 16 23
78 84 80 71 74 78 93 97 62 28 14 16 18 27 35 25 23 26 24 21 19 18 24 26 23 14 16 16 16 23 30 21 59 59 71 52 25 14 13 11 11 13 14 17 17
98 89 78 66 75 84 99 84 43 30 20 14 17 23 32 28 27 25 24 21 19 17 18 20 29 16 16 15 15 18 19 31 34 74 46 22 20 21 17 14 13 12 15 16 17
98 97 68 63 79 96 97 73 49 26 22 19 17 16 14 22 23 23 24 21 22 20 19 19 24 23 17 19 20 20 27 31 24 27 46 52 35 32 21 14 14 15 15 16 18
93 98 64 70 97 88 86 65 44 25 25 28 23 16 17 18 23 23 23 22 16 20 23 20 24 33 22 16 16 16 22 28 41 39 40 52 36 27 24 14 15 15 15 15 16
96 96 66 76 95 93 68 52 48 35 27 26 28 20 24 30 27 28 23 23 22 23 28 24 27 33 35 23 19 19 18 21 24 28 36 62 37 15 14 14 13 15 14 16 17
98 99 96 91 61 68 66 55 52 38 30 26 26 24 29 36 28 36 28 26 36 29 36 34 24 27 39 33 23 23 19 24 27 48 39 37 31 23 17 18 14 15 15 15 18
98 91 78 95 90 68 52 41 46 41 31 30 34 30 34 35 35 33 30 28 29 29 31 29 32 26 20 19 19 21 20 19 19 24 37 29 22 18 15 14 15 17 18 17 15
100 60 59 47 74 68 61 52 40 33 30 34 37 32 43 41 32 27 26 32 39 30 33 32 34 30 32 21 20 21 17 18 17 17 18 19 21 14 12 11 13 16 18 18 20
94 51 58 62 72 82 69 57 41 31 27 24 26 33 45 50 65 44 44 38 38 40 37 37 40 37 43 25 24 34 23 17 16 16 16 20 17 13 13 13 14 16 16 19 29

GFSSW_925_rhum_069.txt.gz
RH
81 81 83 84 87 90 88 93 99 97 89 83 81 83 72 66 50 42 45 22 27 24 12 24 18 15 17 20 17 14 19 21 18 15 18 22 20 20 23 39 49 74 78 82 98
83 81 79 81 82 82 84 87 92 95 88 84 83 85 71 63 61 49 25 25 25 20 16 26 25 20 24 18 17 18 21 17 12 12 12 15 21 18 30 43 51 89 92 100 100
83 84 81 79 78 79 79 80 83 85 83 82 87 87 75 61 62 27 18 24 21 19 14 19 19 19 17 17 16 17 16 12 11 10 11 12 12 52 38 65 94 58 94 94 92
80 86 85 84 81 77 71 75 79 80 80 80 85 88 81 64 38 22 17 18 18 17 13 19 21 19 19 19 14 17 13 12 10 10 10 11 17 82 83 84 69 62 87 89 92
76 78 82 85 84 83 74 65 74 78 77 78 82 88 91 68 50 23 22 18 19 14 19 19 23 21 20 16 14 16 14 11 11 10 11 10 46 61 76 64 66 70 80 88 90
76 75 76 80 86 85 84 72 65 69 75 75 86 93 91 88 25 25 24 21 21 21 20 21 22 18 17 15 17 16 16 15 13 13 12 13 38 45 76 57 54 70 80 88 86
75 76 78 77 81 85 83 80 64 63 74 81 88 100 82 70 16 18 23 23 22 24 24 19 17 19 17 18 18 18 22 18 16 14 13 13 30 54 64 53 61 71 70 82 80
70 72 76 77 76 82 83 81 75 56 59 78 81 100 79 41 24 31 23 22 21 19 22 19 17 19 17 20 21 24 22 26 18 15 13 18 35 52 69 68 78 74 73 71 78
63 68 70 74 76 77 81 81 71 48 62 67 97 96 84 36 40 25 23 24 21 18 18 18 17 20 20 26 32 28 32 26 19 14 16 22 54 49 48 53 58 72 69 68 87
72 65 61 71 72 74 76 77 19 54 70 86 85 82 60 34 23 20 24 22 19 20 25 22 25 28 29 34 42 34 28 22 22 19 20 32 45 48 49 46 57 82 71 66 89
78 72 68 62 75 70 74 74 67 92 79 75 67 54 26 23 22 16 19 18 19 24 36 29 35 35 32 28 25 25 24 24 19 17 22 26 40 50 47 52 75 75 76 70 72
86 77 72 65 66 74 72 81 65 55 71 66 59 52 39 35 35 25 15 24 26 28 32 34 36 26 22 23 24 23 25 25 20 19 17 18 21 48 52 53 51 66 65 62 67
75 81 74 67 77 78 82 72 42 45 77 51 39 45 49 37 44 34 22 21 24 27 32 38 29 23 23 24 23 23 24 26 26 22 22 21 26 46 36 40 44 46 48 47 69
77 68 77 72 82 66 75 55 64 58 88 47 30 28 24 19 37 25 21 21 22 25 29 32 24 24 26 25 21 25 20 20 25 28 34 24 40 28 26 32 30 37 47 46 60
80 83 78 75 75 76 61 66 66 62 93 17 15 16 17 22 21 22 20 23 24 22 27 30 27 27 28 24 20 24 22 22 27 30 29 29 48 44 34 28 30 33 43 43 47
79 78 82 82 91 70 57 58 75 96 82 22 28 30 28 21 22 19 22 21 20 21 22 24 18 20 22 20 19 18 20 25 26 32 47 32 50 56 37 25 26 29 36 39 42
82 82 87 78 80 69 73 78 99 89 19 13 35 31 32 28 24 24 26 28 35 34 31 24 23 17 17 22 21 21 25 50 60 66 61 39 47 40 31 26 24 25 35 32 35
87 83 82 87 65 79 80 96 94 49 37 18 22 31 36 30 28 27 26 30 30 28 29 34 38 22 17 20 25 27 32 59 60 78 70 50 48 30 25 22 17 22 30 35 32
85 91 99 85 68 79 99 99 68 49 24 29 22 28 37 29 32 30 32 30 29 28 32 33 32 17 17 18 20 30 37 33 72 69 91 73 42 22 22 19 17 16 26 35 36
100 99 92 78 72 81 98 90 63 40 29 25 34 28 41 39 36 37 39 30 29 24 23 27 35 22 20 19 20 24 25 43 64 97 97 57 49 35 38 29 19 16 17 23 28
99 99 86 76 79 94 95 77 66 42 37 34 36 38 34 41 37 36 34 28 25 22 20 23 31 35 26 26 25 28 28 34 47 63 73 66 56 38 34 27 18 23 22 26 26
94 99 84 81 98 86 85 66 56 44 37 40 36 35 40 38 38 32 34 29 23 25 26 25 41 48 36 23 18 21 28 40 66 52 58 73 59 26 32 20 23 21 21 23 29
97 97 80 75 96 90 71 64 60 54 50 41 38 31 29 38 45 42 33 28 28 28 36 36 54 66 43 30 20 24 26 25 38 51 59 76 60 26 26 19 21 21 22 23 22
98 99 99 92 71 69 67 68 71 54 56 44 41 36 37 42 37 50 53 31 29 30 46 38 41 47 52 48 32 32 27 24 35 59 52 62 43 30 27 20 18 18 18 25 22
99 97 82 95 94 77 62 56 64 66 50 45 45 47 44 49 57 50 66 65 33 50 38 42 49 42 38 34 31 31 28 24 28 38 54 44 39 31 26 24 21 23 22 21 24
100 96 75 67 75 84 74 79 66 57 45 54 54 46 41 48 51 76 80 64 68 31 38 42 50 42 43 33 28 35 29 24 23 24 26 31 35 25 21 18 21 24 23 22 26
97 70 62 67 77 94 82 73 70 50 44 36 41 43 44 45 64 69 76 68 65 51 44 43 48 51 56 41 36 52 36 37 29 22 24 30 27 21 19 16 18 24 25 32 38

GFSSW_925_rhum_072.txt.gz
RH
81 82 78 76 77 81 83 84 85 89 90 84 82 81 76 78 40 35 47 21 25 24 14 23 20 19 19 21 19 17 28 31 26 18 16 18 21 33 43 52 72 82 89 96 100
86 85 86 84 77 77 77 78 80 81 80 81 80 80 79 76 68 61 15 24 24 28 15 23 29 21 27 23 20 22 29 25 18 14 15 15 24 29 65 85 81 83 91 98 96
77 82 87 86 84 83 80 73 68 74 78 80 80 82 84 78 78 37 17 23 25 22 19 19 22 22 26 21 22 20 26 19 17 14 14 13 52 64 70 88 87 76 89 93 96
78 76 78 81 86 85 85 83 70 64 74 79 81 81 82 78 22 26 20 20 22 21 18 17 22 25 21 21 18 18 17 16 14 13 12 12 65 62 72 67 72 68 82 89 94
79 79 77 77 78 86 89 86 82 69 61 68 82 89 90 84 68 11 28 22 20 17 17 18 24 24 26 20 19 18 16 16 14 15 13 19 50 65 68 69 69 83 90 95 97
71 75 77 79 81 82 85 86 82 78 70 60 81 98 84 87 22 22 29 27 21 20 20 20 22 23 24 22 20 17 20 22 20 16 15 22 56 50 61 62 71 86 91 95 94
68 69 71 75 79 79 80 83 82 80 75 59 69 98 78 72 11 14 22 30 29 27 24 21 19 24 22 25 20 21 25 24 21 18 17 28 37 56 54 64 78 82 89 90 90
68 63 65 71 68 76 78 76 77 76 68 52 72 99 86 38 22 28 22 36 18 20 28 22 21 24 23 21 22 25 26 29 20 17 16 18 25 47 65 60 82 85 82 87 88
77 75 68 62 64 69 74 74 73 59 62 56 92 96 82 44 50 30 33 35 26 23 24 22 25 28 23 25 33 32 37 32 28 19 19 21 32 49 72 72 81 81 80 84 90
77 79 75 68 62 68 68 71 46 54 52 79 88 89 66 34 26 26 22 28 27 24 25 27 27 30 33 37 42 42 36 32 32 23 20 30 39 55 65 65 78 83 80 82 92
74 77 83 77 67 61 78 67 61 82 81 81 72 68 38 28 31 24 24 28 25 24 34 31 37 39 33 33 28 30 32 34 27 20 22 29 43 54 59 61 74 80 80 81 96
79 70 83 81 71 68 72 83 73 70 83 52 59 62 55 47 51 41 23 27 30 34 36 37 41 30 29 30 31 31 34 34 26 21 21 21 22 50 60 56 62 71 77 79 88
82 80 67 77 73 66 74 70 56 69 93 60 49 55 54 49 63 50 30 27 29 35 38 41 35 27 29 30 31 30 33 32 28 23 25 23 29 51 45 51 56 58 53 70 81
80 79 78 81 75 66 84 69 67 77 96 52 48 36 36 40 47 30 22 26 29 32 30 38 31 32 32 32 28 35 25 25 25 31 38 25 42 45 42 46 49 53 60 63 73
83 82 81 80 67 84 76 68 69 74 29 17 27 24 32 34 28 39 25 31 33 29 30 36 36 36 36 31 26 31 27 27 27 32 32 33 46 42 36 38 41 48 53 59 68
84 84 79 92 88 69 50 58 77 87 75 33 23 32 38 32 23 23 36 25 25 27 26 27 23 28 29 25 25 24 26 28 35 38 49 36 47 49 44 34 33 44 49 54 65
86 85 87 93 86 67 83 86 89 92 22 19 31 34 31 33 28 24 32 35 38 39 37 26 26 24 21 27 25 26 32 48 52 64 61 44 51 42 29 32 29 42 47 51 64
87 87 87 89 75 71 80 99 97 50 44 24 26 25 42 33 29 28 32 31 30 33 36 38 41 25 23 24 27 30 34 57 53 68 63 58 52 41 28 26 26 30 42 47 57
89 97 100 88 77 82 97 94 71 48 39 40 30 30 30 35 35 35 38 35 27 30 40 38 36 23 20 20 21 29 39 34 71 74 82 65 56 35 25 23 22 28 38 45 50
100 100 96 79 82 87 98 83 63 39 34 40 52 32 34 48 49 42 42 32 31 27 30 32 38 24 22 21 21 28 31 56 65 79 83 67 60 50 29 24 20 29 46 40 41
100 99 89 86 87 97 95 80 63 48 47 45 45 45 42 45 42 47 47 34 28 32 30 32 36 37 27 29 31 31 33 42 53 68 80 74 57 43 38 26 23 23 31 36 40
95 100 93 93 98 94 88 76 58 54 49 54 49 45 47 44 50 51 46 38 33 25 36 33 41 48 36 29 27 29 28 37 69 73 72 70 55 30 34 23 25 27 28 33 34
97 97 95 82 95 93 69 63 62 60 53 53 50 44 35 42 57 48 41 46 36 34 32 36 48 54 38 31 29 32 29 30 46 58 65 72 59 30 32 28 24 27 26 30 30
99 99 99 96 75 70 86 75 68 51 57 54 56 50 51 49 41 53 49 52 62 40 52 34 52 36 42 42 39 41 30 26 38 67 58 62 45 35 29 28 22 26 24 28 32
100 97 88 97 94 76 68 65 71 74 57 57 65 65 64 61 55 57 74 71 60 49 51 41 53 43 40 39 40 40 37 33 32 40 47 42 44 34 32 30 25 24 23 25 26
99 99 90 77 83 87 78 84 67 62 55 67 70 57 57 58 52 57 73 83 78 69 57 46 52 51 58 43 41 45 41 35 36 31 39 40 43 32 28 28 26 24 23 25 27
94 89 70 79 95 96 82 73 70 56 54 51 53 58 58 53 48 65 71 74 78 85 74 51 56 63 64 45 46 65 55 48 43 37 31 37 36 27 26 29 25 28 27 27 34

GFSSW_925_rhum_078.txt.gz
RH
80 79 83 86 85 82 84 86 85 81 77 64 61 62 63 61 49 50 64 9 20 25 26 26 26 25 22 23 23 25 35 41 30 28 22 16 19 43 54 62 71 78 92 90 91
78 80 80 79 78 79 80 81 88 88 83 80 60 55 59 68 80 95 9 16 23 24 22 22 26 23 26 25 27 28 38 33 26 23 20 21 20 21 50 59 60 81 92 94 99
78 76 77 80 81 79 80 82 84 85 85 81 67 52 65 84 74 22 29 22 29 32 19 22 26 25 29 27 26 27 30 25 22 21 21 21 22 42 57 53 60 60 94 94 99
67 68 73 74 73 77 82 82 82 80 80 77 71 56 60 84 8 31 29 30 31 32 22 21 23 28 32 30 26 26 24 22 19 18 18 20 30 52 62 40 64 64 91 89 94
79 74 66 68 72 71 73 75 72 74 77 76 73 65 76 79 58 10 27 27 25 26 23 22 26 29 31 28 23 23 21 20 19 20 23 28 36 46 64 54 74 88 95 84 89
80 80 74 70 65 63 68 69 68 67 71 76 72 89 95 76 18 26 34 36 36 26 23 20 22 26 27 28 27 22 20 22 25 25 24 27 39 56 43 77 87 94 94 86 87
72 69 80 79 74 68 55 53 58 64 66 70 73 95 91 51 11 25 33 32 29 34 26 20 18 25 26 27 25 24 30 28 26 22 24 30 37 64 46 80 81 97 82 78 86
74 71 68 77 79 72 58 59 50 48 56 68 85 90 83 32 21 17 14 33 22 17 25 30 28 26 28 26 28 27 27 30 21 22 20 24 35 28 40 76 83 98 87 84 82
76 75 72 68 66 74 71 62 39 42 65 87 92 92 83 34 51 22 46 48 42 35 26 28 30 34 31 36 40 35 40 32 28 23 23 24 32 26 67 71 81 99 98 90 88
80 80 78 75 64 73 79 57 44 71 78 93 96 78 49 26 32 37 40 49 31 43 37 39 42 46 47 44 53 41 41 39 37 25 27 30 33 29 55 71 74 95 97 98 94
84 85 84 78 66 69 78 56 63 64 69 79 72 60 44 53 46 39 38 38 33 34 43 42 48 52 43 45 34 32 35 38 36 29 27 32 36 30 43 79 84 91 96 96 96
81 85 85 82 74 67 78 83 68 69 93 65 66 62 58 57 61 40 36 41 38 42 39 44 50 36 37 41 40 36 37 39 34 28 30 34 33 29 51 61 77 82 94 95 96
78 80 83 87 82 71 74 67 68 76 94 73 61 56 45 43 49 38 37 38 41 45 44 38 38 35 37 42 43 42 42 39 37 34 32 32 38 32 36 58 57 64 78 90 94
80 82 81 88 86 78 78 79 73 85 96 49 58 52 37 36 50 33 30 29 38 44 43 43 28 34 39 40 37 46 35 34 36 39 48 31 52 36 31 45 54 58 71 88 94
79 78 82 90 71 82 80 67 57 83 27 18 39 32 40 30 28 42 33 35 24 39 38 45 40 37 44 40 35 39 32 36 36 43 42 40 50 43 38 38 39 44 60 76 89
77 79 84 93 99 80 67 62 85 77 38 22 33 54 54 46 42 42 39 30 32 35 37 36 30 35 33 33 33 31 35 37 41 49 66 47 51 50 40 37 33 35 42 62 86
79 84 86 90 88 68 75 86 96 93 36 28 38 36 35 47 48 36 50 45 44 48 46 36 34 27 31 36 38 36 41 60 61 73 68 44 53 38 32 32 33 33 34 47 71
78 85 89 94 88 72 71 89 97 58 56 34 38 42 32 37 39 42 48 53 40 39 34 36 43 33 29 39 43 44 45 68 61 67 56 54 59 46 36 35 34 33 32 50 76
80 89 99 94 96 74 88 98 63 63 47 47 43 43 36 43 44 53 45 51 40 40 41 49 43 29 27 28 28 39 50 38 66 79 77 63 49 37 30 33 30 34 37 49 75
100 98 93 88 96 89 100 65 64 53 55 49 51 52 57 52 54 62 58 43 38 35 37 40 48 34 28 26 27 35 38 57 66 83 82 63 61 48 35 29 31 30 43 51 64
100 97 84 87 99 98 96 78 53 41 48 63 66 62 57 56 56 69 58 46 45 53 46 37 46 44 31 36 36 41 36 46 52 63 59 66 59 48 38 40 43 33 35 47 63
95 97 93 92 99 100 95 71 50 57 53 55 58 63 67 64 56 64 70 55 54 60 69 42 49 56 44 32 29 29 39 44 61 65 72 68 46 32 38 40 36 32 28 44 56
97 97 100 92 97 95 83 72 62 60 60 62 68 62 56 57 60 59 58 48 63 63 81 75 75 56 47 36 35 37 36 42 54 70 79 71 52 37 32 31 32 33 30 32 50
100 99 99 97 86 85 83 77 91 58 56 64 62 60 67 71 56 64 59 44 49 54 84 78 88 65 52 41 39 44 37 36 44 67 68 74 47 37 34 33 32 32 33 32 41
99 99 93 98 97 82 72 70 79 73 57 55 71 75 76 82 79 73 52 48 52 62 80 84 97 67 53 39 32 41 44 43 45 49 50 43 54 38 36 31 30 32 28 29 33
99 100 97 93 73 96 82 79 75 68 60 67 67 59 66 82 66 58 56 56 64 69 79 84 99 77 61 48 41 42 42 47 49 48 46 43 46 32 36 35 35 31 29 29 29
97 89 90 83 88 97 86 76 80 62 65 50 59 62 72 68 58 56 54 55 58 64 78 94 100 98 66 53 51 66 51 44 45 46 46 59 45 37 37 37 37 34 34 31 30

GFSSW_925_rhum_081.txt.gz
RH
78 79 82 83 80 80 79 80 81 81 85 94 73 62 36 51 30 37 59 8 21 23 28 31 29 28 23 22 23 22 27 27 26 26 18 16 18 26 47 45 56 63 68 75 94
77 75 75 78 77 81 80 80 81 81 79 76 70 64 43 57 66 78 17 24 22 33 27 28 28 24 22 21 23 22 27 25 22 20 19 19 18 16 32 45 46 67 79 84 91
68 69 69 75 77 75 76 78 80 76 73 73 70 68 51 65 55 17 36 27 25 34 23 21 24 21 23 26 24 25 23 23 19 19 17 18 18 22 35 28 32 46 64 79 84
79 78 74 66 68 72 70 70 72 72 70 71 74 70 48 74 8 29 32 34 36 29 23 27 25 28 29 28 26 26 23 21 18 18 20 19 19 29 41 22 48 42 64 77 84
76 77 78 78 71 64 60 58 59 65 68 69 70 87 64 52 28 8 13 26 29 40 24 23 26 29 31 28 23 26 22 19 19 18 18 20 21 23 37 33 61 72 76 78 79
77 74 70 70 80 76 67 64 60 58 53 54 67 94 93 47 9 14 27 33 34 28 25 22 21 22 25 27 24 23 21 19 20 22 22 23 26 48 21 42 69 85 83 74 73
76 72 73 71 68 74 74 68 69 62 46 49 65 94 86 50 10 24 33 30 33 35 26 23 19 25 25 28 25 24 27 25 22 19 19 22 30 41 29 63 72 80 77 73 69
75 75 75 76 71 62 60 72 70 50 51 59 81 94 76 35 25 21 15 26 20 13 24 28 30 24 26 25 27 27 28 29 20 22 20 22 19 22 33 56 68 79 74 69 70
79 82 82 81 76 75 64 71 52 56 68 91 93 87 67 34 51 22 34 42 48 45 28 31 31 33 31 29 31 35 26 30 22 20 21 25 23 22 47 55 60 85 75 71 73
82 86 84 85 76 80 72 52 47 75 89 96 88 77 49 22 36 38 44 51 37 45 40 35 37 41 41 36 35 34 34 33 27 22 25 25 23 20 31 51 52 63 81 84 80
77 81 81 84 79 84 72 52 65 61 71 65 62 61 48 52 45 44 44 44 35 38 38 45 44 49 40 36 29 30 30 28 26 26 26 24 24 20 22 54 57 64 72 82 88
82 79 76 82 83 89 76 74 73 77 91 66 66 60 55 56 52 36 36 43 42 40 40 45 50 39 35 39 37 31 32 29 28 26 28 24 25 22 24 30 46 54 65 71 74
83 76 78 81 87 84 70 67 77 78 95 66 63 63 51 45 50 40 34 40 40 43 41 37 39 35 35 40 43 40 40 36 33 30 26 28 28 26 24 39 48 55 52 62 68
81 75 82 86 87 78 80 83 76 84 87 51 54 53 41 39 48 34 24 27 43 41 39 38 27 35 38 36 36 39 33 36 37 37 34 30 35 29 23 24 37 45 59 61 67
79 75 83 89 79 81 76 67 63 83 32 21 50 34 36 38 30 44 30 30 23 39 41 41 41 34 36 37 36 34 31 35 35 37 37 26 34 33 32 28 23 24 46 54 60
78 77 79 89 100 93 77 69 83 85 37 25 43 52 43 41 38 43 42 32 30 28 32 34 32 32 27 29 34 32 32 35 41 40 48 33 37 34 28 27 24 24 28 48 58
77 77 85 94 90 73 72 85 88 82 35 38 38 38 38 44 47 43 49 46 44 39 37 31 30 30 30 34 36 34 40 47 57 60 42 38 43 32 29 26 24 23 22 38 56
79 83 83 92 94 73 76 78 95 51 57 40 41 42 34 36 42 47 50 51 39 39 32 36 34 32 31 31 37 40 39 43 43 50 38 44 45 31 28 27 29 29 27 31 53
82 99 99 80 98 85 89 94 57 56 49 50 40 42 44 43 48 52 49 48 41 37 35 38 33 26 29 31 29 44 47 33 51 72 64 46 42 31 27 28 26 25 26 31 47
99 92 88 77 83 84 99 77 62 53 54 52 46 50 55 51 55 60 53 45 45 48 38 43 44 33 28 26 27 33 35 50 46 51 52 47 48 31 28 25 28 32 30 31 42
99 99 65 74 92 98 94 76 56 41 42 61 65 61 62 61 54 65 59 46 56 57 48 43 44 45 36 35 33 33 39 45 39 47 43 47 42 38 30 28 35 36 31 31 45
94 99 68 88 99 100 96 70 51 56 50 46 57 62 63 60 56 52 60 51 58 60 76 72 66 49 38 32 29 28 32 34 51 59 56 47 38 29 33 32 37 31 29 26 36
94 90 86 86 96 92 99 95 57 58 55 64 58 57 57 56 51 52 55 48 56 52 62 61 79 65 44 30 26 34 34 31 33 50 49 61 42 31 34 32 30 30 29 28 33
98 98 98 96 96 79 80 96 95 56 56 62 64 60 64 69 58 60 60 46 50 38 72 60 80 94 72 58 48 39 37 38 38 53 43 47 38 33 31 31 29 31 30 29 29
99 98 84 98 97 97 77 68 81 78 61 55 60 70 68 76 72 65 53 46 40 44 72 67 60 63 78 67 66 58 37 33 42 42 46 39 38 33 33 30 29 31 30 28 26
100 100 98 82 77 96 78 75 68 75 67 70 66 60 59 78 71 60 51 52 55 52 51 62 92 94 87 64 64 64 44 33 38 36 40 43 41 32 29 28 30 30 33 27 26
95 95 88 86 98 98 96 73 72 62 65 52 58 61 85 77 61 56 54 54 55 62 67 67 95 100 75 75 88 70 49 38 34 36 36 44 36 32 33 35 33 32 35 33 30

GFSSW_925_rhum_084.txt.gz
RH
79 75 76 77 72 73 76 78 79 78 71 66 66 63 52 40 22 36 29 18 21 20 31 37 33 21 19 15 17 15 15 13 11 11 9 11 13 12 20 21 22 27 26 40 63
70 68 81 79 72 72 76 74 73 72 70 66 62 64 53 28 56 24 21 32 22 28 32 26 22 20 16 15 15 16 14 12 9 9 12 12 13 11 13 12 16 24 35 53 63
84 85 90 93 86 69 71 73 68 66 67 66 64 63 42 38 30 8 32 30 31 36 26 23 18 17 16 13 15 14 15 11 12 12 11 11 12 11 14 14 13 15 17 42 52
73 73 74 82 90 82 72 67 65 60 57 52 58 69 40 62 10 26 31 32 30 44 24 20 16 17 16 16 12 16 13 11 10 9 12 12 11 12 13 15 12 20 23 34 48
80 78 72 71 71 73 81 76 73 72 66 58 53 89 62 28 10 16 13 23 46 38 22 20 20 17 17 14 12 18 11 12 12 12 14 13 14 13 12 11 12 26 36 40 47
82 78 72 69 66 63 62 58 60 65 68 65 69 80 58 33 10 21 21 37 28 32 28 20 20 18 18 16 17 13 15 14 13 13 14 16 13 13 14 12 18 30 32 36 46
76 76 72 76 74 70 68 68 58 50 57 62 95 77 58 30 18 28 31 30 35 24 20 22 20 18 17 19 17 17 19 15 15 14 15 13 14 13 13 20 24 29 35 38 44
72 74 80 81 79 76 77 71 58 44 49 63 95 71 55 27 33 31 22 24 22 25 24 25 22 20 20 18 20 20 19 21 14 13 13 14 14 8 10 21 22 27 36 41 45
78 76 82 84 82 83 82 70 54 52 69 78 85 68 32 29 34 26 23 20 27 25 19 17 23 19 17 24 22 18 23 18 18 13 12 16 12 10 19 20 22 26 35 40 41
75 77 78 77 78 82 82 66 53 78 80 76 66 67 35 12 26 36 43 41 36 40 25 17 24 24 25 21 23 21 22 21 20 14 15 14 14 11 12 18 20 24 35 37 40
76 79 82 74 75 84 82 53 36 44 55 42 30 33 22 31 34 28 42 42 31 31 21 21 28 28 21 23 20 18 22 21 16 16 19 17 15 11 10 15 21 26 31 37 41
75 81 81 75 76 83 81 48 58 72 78 45 42 36 31 33 40 23 37 34 35 30 22 26 31 18 19 22 28 26 24 22 16 16 21 18 15 11 10 14 16 18 27 32 40
78 84 78 78 80 79 68 56 74 72 79 47 41 42 40 37 35 28 31 32 31 31 32 32 21 18 24 31 32 28 27 23 21 18 19 21 21 16 9 14 18 22 22 26 34
79 85 76 83 80 70 59 69 70 80 78 28 45 38 40 32 37 23 18 26 30 30 28 34 26 24 26 31 25 30 20 22 24 25 26 20 23 13 15 16 16 19 27 26 31
73 79 78 88 85 62 66 75 78 79 38 18 35 30 30 32 23 38 25 17 24 35 35 31 33 31 34 28 24 26 20 19 23 27 27 25 26 15 12 16 15 13 19 25 29
71 69 83 82 86 83 81 83 77 81 39 19 35 39 36 34 29 38 35 24 18 17 16 29 25 29 29 22 23 24 27 28 29 29 38 29 23 18 14 18 16 14 14 20 26
73 66 86 92 75 80 82 75 72 56 22 25 36 32 27 36 40 39 44 47 36 33 25 14 21 21 25 24 22 27 28 36 43 43 38 20 23 20 16 16 16 14 14 18 24
75 73 88 89 87 79 79 74 84 31 35 28 31 28 27 32 37 37 43 43 36 32 22 21 17 15 16 22 22 30 29 32 40 36 32 23 30 21 16 14 14 15 16 19 25
74 78 95 80 92 87 96 92 35 34 34 40 29 29 30 35 37 39 37 36 37 31 31 25 22 15 16 15 14 24 33 23 33 30 46 28 24 22 18 18 17 16 15 18 20
82 86 76 75 91 94 100 83 41 41 42 40 35 36 34 36 30 34 42 42 43 41 42 31 35 20 19 21 18 18 18 36 34 45 43 27 28 25 21 19 16 18 19 20 18
91 90 61 75 95 99 96 90 50 34 39 47 44 41 42 43 37 34 37 44 40 42 41 41 36 32 30 29 28 28 32 29 27 30 36 34 24 19 20 18 18 19 20 20 23
88 99 56 90 96 99 97 62 59 41 35 39 45 48 45 43 39 37 35 39 37 37 49 54 56 43 31 24 23 23 26 29 39 30 34 35 30 21 22 21 22 20 21 20 26
96 81 66 85 94 86 89 92 51 44 44 40 42 41 39 43 44 39 37 38 37 36 45 43 74 57 38 29 23 28 27 26 27 30 39 51 33 17 16 17 18 21 19 19 22
94 96 74 90 86 78 57 77 99 60 43 40 48 43 48 51 44 43 41 33 40 35 50 39 41 67 67 62 54 54 42 29 29 44 39 34 27 22 21 20 17 19 18 17 19
99 94 55 86 89 94 71 64 72 81 48 43 50 49 50 55 51 52 45 41 35 36 41 44 47 35 36 38 38 41 46 42 37 29 37 31 27 21 18 18 18 18 20 20 18
99 100 64 52 46 70 94 70 66 45 58 58 53 42 47 56 48 53 50 49 47 41 50 46 75 63 68 45 40 48 41 39 36 33 25 25 27 19 19 18 19 19 19 21 20
96 94 96 67 64 92 84 74 63 52 49 42 43 48 51 47 46 55 54 52 50 51 55 62 63 79 62 45 52 53 46 46 32 30 29 34 25 21 22 20 20 19 19 21 22